GEFSSGP_con_prob3kmehi_240.txt.gz
EHI
1 1 0 0 0 0 0 0 0 0 0 0 0 0 0 0 0 0 0 0 0 0 1 1 1 0 0 0 1 2 2 3 3 3 2 1 0 0 0 0 0 0 0 0 0 0 0 0 0
1 1 1 1 0 0 0 0 0 0 0 0 0 0 0 0 0 0 0 0 0 0 0 0 0 0 0 0 0 1 1 2 2 2 1 0 0 0 0 0 0 0 0 0 0 0 0 0 0
1 2 2 1 0 0 0 0 0 0 0 0 0 0 0 0 0 0 0 0 0 0 0 0 0 0 0 0 0 0 0 1 1 1 0 0 0 0 0 0 0 0 0 0 0 0 0 0 0
3 3 2 1 0 0 0 0 1 0 0 0 0 0 0 0 0 0 0 0 0 0 0 0 1 0 0 0 0 0 0 0 0 0 0 0 1 1 1 0 1 1 1 0 0 0 0 0 0
2 2 1 0 0 0 0 0 0 0 0 0 0 0 0 0 0 0 0 0 0 0 0 1 3 2 0 0 0 0 0 0 0 0 0 0 1 2 2 2 2 2 1 0 0 0 0 0 0
1 1 0 0 0 0 0 0 0 0 0 0 0 0 0 0 0 0 1 1 1 0 0 1 3 2 1 0 0 0 0 0 0 0 0 1 1 2 2 2 3 2 1 0 0 0 1 1 1
0 0 0 0 0 0 0 0 1 1 1 1 0 0 0 0 0 1 2 3 3 2 0 0 1 1 1 0 0 0 0 0 0 0 0 2 3 3 3 3 3 2 1 0 0 1 2 3 3
0 0 0 0 0 0 0 1 1 1 1 1 0 0 0 0 0 1 3 4 5 4 2 0 0 0 0 0 0 0 0 0 1 1 2 3 3 3 4 4 4 3 3 2 1 2 3 4 5
0 0 0 0 0 0 0 1 1 1 1 1 1 1 1 1 1 2 3 4 6 5 3 1 0 0 0 0 0 0 0 0 1 2 3 3 2 2 4 6 6 6 6 5 5 4 3 4 4
0 0 0 0 0 0 0 1 1 1 1 1 2 2 2 2 3 4 4 4 5 5 3 1 1 1 1 0 0 0 0 0 1 1 3 3 2 2 4 5 6 7 6 5 5 3 2 1 2
0 0 0 0 0 0 1 1 1 0 0 1 3 3 1 2 4 6 6 6 7 6 4 2 2 2 2 1 1 1 1 0 0 0 1 2 2 2 3 3 3 4 4 3 2 1 0 0 0
0 0 0 0 0 1 2 2 1 0 0 1 2 2 0 2 5 6 6 8 10 8 5 4 4 3 1 1 1 2 2 1 0 0 0 1 2 2 2 2 2 3 3 1 0 0 0 0 0
0 0 0 0 1 3 5 4 3 2 1 1 2 1 0 1 4 6 7 10 12 10 7 6 5 3 0 0 1 1 2 2 1 1 1 1 1 1 1 1 2 2 2 1 0 0 0 0 0
0 0 0 0 1 5 7 6 5 5 4 2 1 1 1 2 4 8 10 11 11 11 10 9 7 3 1 1 0 1 1 1 1 2 2 3 2 1 1 2 2 1 1 1 0 0 0 0 0
0 0 0 0 1 4 7 6 6 7 5 2 0 0 2 3 5 10 12 11 10 11 12 10 7 5 3 2 1 1 1 0 1 1 3 5 5 3 3 3 2 1 1 1 0 0 0 0 0
0 0 0 0 0 2 4 4 5 6 4 1 0 0 2 4 6 8 10 10 11 12 11 8 7 6 5 3 2 1 1 1 0 1 3 6 8 7 5 4 3 2 2 2 1 0 0 0 0
0 1 1 1 1 1 2 3 4 5 4 1 0 1 3 5 7 8 11 14 14 12 9 7 6 7 8 7 5 3 2 2 1 0 1 4 8 9 7 5 4 4 4 3 1 0 0 0 0
0 1 2 2 1 1 1 1 3 5 5 3 2 3 4 5 7 13 19 22 21 17 13 11 9 7 9 11 9 6 4 3 2 2 3 5 8 10 9 7 6 6 5 4 1 0 0 0 0
0 1 2 2 1 0 0 1 3 6 7 6 5 4 4 5 10 19 28 33 32 27 24 23 18 12 12 13 12 8 4 3 4 5 7 8 9 10 10 9 8 7 6 4 2 1 1 0 0
0 1 2 3 1 1 1 3 5 8 10 10 8 5 4 6 13 23 33 42 45 42 38 35 29 21 16 15 12 8 4 4 5 7 9 9 9 9 9 10 10 9 6 4 3 2 2 1 1
0 1 3 3 2 2 3 4 6 10 12 13 11 8 7 8 13 23 36 47 54 53 47 43 39 31 21 17 15 11 8 6 7 8 9 9 9 9 9 10 10 8 6 4 4 3 3 3 2
1 1 2 2 2 2 3 3 5 8 12 13 13 14 13 12 16 25 37 48 56 57 54 50 46 39 29 24 22 18 13 9 8 9 10 11 11 10 10 10 9 9 8 6 5 4 4 2 1
0 1 1 1 1 2 2 2 3 6 9 12 14 17 19 19 23 29 38 46 53 59 60 56 52 46 39 34 31 26 19 13 11 11 12 13 12 11 10 10 10 11 9 6 4 3 2 1 0
0 0 0 0 0 1 1 2 2 4 7 11 13 16 20 24 29 33 39 45 51 59 64 62 57 51 46 43 39 33 27 21 18 17 16 15 13 11 10 9 10 11 10 7 5 3 2 1 0
0 0 0 0 0 0 0 2 4 6 9 13 15 16 20 26 32 36 41 47 53 61 66 65 62 57 52 49 45 39 33 29 26 23 21 19 16 13 10 8 9 10 10 9 7 4 2 1 0
0 0 0 0 0 0 1 4 6 9 13 16 17 19 22 27 32 38 43 49 55 61 65 67 66 62 57 53 49 44 37 31 28 28 27 25 21 16 12 11 10 11 12 12 8 5 2 0 0
0 0 0 0 0 0 1 4 7 11 14 16 17 20 22 24 29 37 43 48 53 58 61 64 66 64 60 55 51 44 38 33 30 29 29 27 24 20 18 17 15 14 15 12 7 3 2 1 1
0 0 0 0 0 0 1 3 6 10 13 15 16 19 20 20 24 34 42 46 51 54 56 58 61 62 59 56 50 42 37 34 31 28 27 26 24 22 22 22 19 18 17 14 8 4 3 2 2
0 0 0 0 0 0 1 3 5 9 14 17 18 18 19 20 23 33 42 48 52 54 56 57 57 59 59 56 50 43 38 35 32 29 26 25 23 22 24 23 20 19 18 15 10 7 5 5 5
0 0 0 0 0 0 1 3 5 8 14 19 20 20 19 21 26 35 44 51 53 56 58 58 57 58 58 57 53 46 40 37 35 30 27 26 23 21 23 23 20 19 19 16 12 9 8 8 7

GEFSSGP_con_prob3kmehi_246.txt.gz
EHI
1 1 1 1 1 0 0 0 0 0 0 0 0 0 0 0 0 1 2 3 3 3 3 3 3 3 3 4 5 6 6 6 6 6 6 6 5 4 3 3 3 3 4 4 4 3 3 3 3
1 1 1 1 0 0 0 0 0 0 0 0 0 0 0 0 0 1 2 3 3 4 3 3 3 3 3 3 4 5 6 5 5 5 6 6 5 4 3 3 3 3 4 5 4 3 2 3 3
2 2 1 0 0 0 0 0 0 0 0 0 0 0 0 0 1 1 3 3 4 5 4 4 4 4 3 3 3 4 6 5 4 4 5 6 6 4 3 2 2 3 4 5 4 2 1 1 2
2 2 1 0 0 0 0 0 0 0 0 0 0 0 0 1 2 3 3 4 5 5 5 5 6 5 4 3 3 4 5 5 4 3 4 5 4 4 3 2 1 1 3 3 2 0 0 0 1
1 1 0 0 0 0 0 0 0 0 0 0 0 0 1 2 3 3 3 3 4 5 5 5 6 6 5 4 3 3 4 4 3 3 3 4 3 3 3 2 1 0 1 1 0 0 0 0 0
0 0 0 0 0 0 0 0 0 0 0 0 0 0 1 2 3 3 3 3 3 4 4 5 6 6 6 5 4 3 3 3 3 3 3 3 3 3 3 3 2 1 0 0 1 1 0 0 0
0 0 0 0 0 0 0 0 1 1 0 0 0 0 1 1 2 3 3 4 4 3 3 4 6 6 6 6 4 3 3 3 3 3 3 3 3 3 3 4 4 3 1 1 1 1 0 0 1
0 0 0 0 0 0 0 0 1 1 0 0 0 0 0 0 1 3 4 5 5 4 4 4 5 6 6 5 5 4 4 3 3 3 3 3 2 2 3 4 5 4 2 1 1 1 0 0 1
0 0 0 0 0 0 0 0 1 1 0 0 0 0 0 0 1 3 5 6 6 6 5 4 4 4 4 4 4 4 4 3 2 2 2 1 1 1 1 3 5 4 2 0 0 0 0 0 1
0 0 0 0 0 0 0 0 0 0 0 0 1 1 0 1 2 3 4 5 6 6 5 4 3 2 2 3 3 3 2 1 1 1 1 0 0 0 0 1 2 2 1 0 0 1 0 0 0
0 0 1 1 1 0 0 0 0 0 0 0 1 2 2 2 3 3 3 4 4 4 5 4 2 1 1 1 2 1 1 0 0 0 0 0 0 0 0 0 1 1 1 0 0 0 0 0 0
1 1 2 2 2 1 0 0 0 0 0 1 2 3 4 4 4 4 3 4 3 3 4 3 2 1 0 0 0 0 0 0 0 0 0 0 0 0 0 0 0 0 0 0 0 0 0 0 0
2 3 3 3 2 1 0 0 0 0 0 1 2 2 2 3 3 3 4 4 4 3 3 3 2 0 0 0 0 0 0 0 0 0 0 0 0 0 0 0 0 0 0 0 0 0 0 0 0
3 3 3 3 2 1 0 0 0 0 0 1 1 1 0 1 2 3 3 4 3 3 3 3 2 1 0 0 0 0 0 0 0 0 0 0 0 0 0 0 0 1 0 0 0 0 0 0 0
2 2 2 2 1 0 0 0 0 0 0 0 0 0 0 0 1 1 2 3 3 3 3 3 3 2 1 0 0 0 0 0 0 0 0 0 0 0 0 0 0 0 0 0 0 0 0 0 0
1 1 1 1 0 0 0 0 0 0 0 0 0 0 0 0 0 0 2 3 3 4 4 4 5 4 2 1 0 0 0 0 0 0 0 0 0 0 0 0 0 0 0 0 0 0 0 0 0
0 0 0 0 0 1 1 0 0 0 0 0 0 0 0 0 0 1 2 4 5 5 5 6 5 4 3 1 1 1 1 1 0 0 0 0 0 1 1 1 1 1 1 1 1 1 0 0 0
0 0 0 0 1 2 2 1 1 1 1 0 0 0 1 1 1 1 3 5 6 5 4 5 6 4 3 3 3 2 2 2 1 0 0 0 1 3 3 3 3 2 2 2 1 1 0 0 0
0 0 0 1 2 3 3 3 3 4 2 1 0 0 1 2 1 1 3 5 6 5 4 4 5 4 3 3 3 3 3 2 1 1 1 2 4 5 5 5 4 3 3 3 2 0 0 0 0
1 1 1 1 1 2 3 4 5 5 3 1 0 0 1 2 3 2 3 5 7 7 5 4 4 3 2 2 2 2 2 1 1 1 2 5 6 6 6 4 3 3 3 2 1 0 0 0 0
1 1 1 0 0 1 1 2 3 3 2 0 0 1 2 3 3 4 4 5 7 7 6 4 3 2 1 2 3 4 4 2 1 1 3 4 4 4 4 4 4 4 3 2 1 2 2 1 1
0 0 0 0 0 0 0 1 1 1 1 1 1 2 3 3 4 5 6 6 6 6 4 2 2 2 2 4 6 6 6 4 2 1 1 3 2 2 3 4 5 6 5 3 3 4 4 2 2
0 0 0 0 0 0 0 0 0 0 1 2 3 3 3 3 4 4 6 7 7 4 2 1 2 2 3 5 8 8 7 6 4 2 2 3 4 4 4 5 6 6 6 5 4 4 4 3 3
0 0 0 0 0 0 0 0 0 0 1 2 3 4 4 4 5 4 6 8 9 8 6 5 5 4 4 7 9 10 10 10 9 7 7 7 7 8 8 8 7 6 5 5 4 4 4 4 4
0 0 0 0 0 0 0 0 0 0 0 1 2 4 5 5 6 6 7 10 11 13 14 12 9 7 7 9 11 12 14 14 14 14 12 11 10 11 11 10 9 6 5 4 4 5 5 5 4
0 0 0 0 0 0 0 0 0 0 1 1 3 5 6 7 8 7 8 10 12 17 22 22 17 13 12 13 15 16 18 18 18 17 15 14 13 13 13 12 10 7 4 3 4 5 6 5 5
0 0 0 0 0 0 0 0 0 1 2 4 5 5 6 9 11 9 8 8 12 20 28 31 28 23 19 17 16 16 18 19 18 17 16 15 15 15 14 13 11 7 4 4 4 5 5 5 5
0 0 0 0 0 0 0 0 0 1 2 4 5 5 6 9 11 10 8 8 13 21 30 34 32 28 24 20 16 14 15 16 15 15 15 15 16 16 15 13 10 7 5 3 3 4 4 3 3
0 0 0 0 0 0 0 0 0 1 1 2 4 5 6 7 9 10 9 11 16 22 27 32 32 29 26 23 19 16 15 15 15 15 15 15 16 17 16 14 9 6 3 1 1 2 3 2 2
0 0 0 0 0 0 0 0 0 0 1 2 4 5 5 6 8 10 11 14 18 23 28 32 34 31 28 24 20 18 17 17 18 18 17 16 16 17 16 13 10 5 1 0 0 1 2 3 3

GEFSSGP_con_prob3kmehi_252.txt.gz
EHI
14 13 10 7 4 1 0 0 0 0 0 0 0 0 0 0 0 0 0 0 0 0 0 0 0 0 0 0 0 0 0 0 0 0 0 0 0 0 0 1 0 0 0 0 0 0 0 0 1
13 11 9 6 2 0 0 0 0 0 0 0 0 0 0 0 0 0 0 0 0 0 0 0 0 0 0 0 0 0 0 0 0 0 0 0 0 0 0 1 0 0 0 0 0 0 0 1 2
9 7 5 2 1 0 0 0 0 0 0 0 0 0 0 0 0 0 0 0 0 0 0 0 0 0 0 0 0 0 0 0 0 0 0 0 0 0 1 1 0 0 0 0 0 0 0 1 2
3 3 2 1 0 0 0 0 0 0 0 0 0 0 0 0 0 0 0 0 0 0 0 0 0 0 0 0 0 0 0 0 0 0 0 0 0 1 1 1 0 0 0 0 0 0 0 1 1
1 1 1 0 0 0 0 0 0 0 0 0 0 0 0 0 0 0 0 0 0 0 0 0 0 0 0 0 0 0 0 0 0 0 0 0 0 0 0 0 0 0 0 0 0 0 0 0 0
0 0 0 0 0 0 0 0 0 0 0 0 0 0 0 0 0 0 0 0 0 0 0 0 0 0 0 0 0 0 0 0 0 0 0 0 0 0 0 0 0 0 0 0 0 0 0 0 0
0 0 0 0 0 0 0 0 0 0 0 0 0 0 0 0 0 0 0 0 0 0 0 0 0 0 0 0 0 0 0 0 0 0 0 0 0 0 0 0 0 0 0 0 0 0 0 0 0
0 0 0 0 0 0 0 0 0 0 0 0 0 0 0 0 0 0 0 0 0 0 0 0 0 0 0 0 0 0 0 0 0 0 1 1 1 1 0 0 0 0 0 0 0 0 0 0 1
0 0 0 0 0 0 0 0 0 0 0 0 0 0 0 1 1 1 0 0 0 0 0 0 0 0 0 0 0 0 0 0 0 0 1 1 1 0 0 0 0 0 0 0 0 0 0 0 1
0 0 0 0 0 0 0 0 0 0 0 0 0 0 1 2 3 2 1 0 0 0 0 0 0 0 0 0 0 0 0 0 0 0 1 1 0 0 0 0 0 0 0 1 1 0 0 0 1
0 1 1 0 0 0 0 0 0 0 0 0 0 1 2 4 4 3 2 1 1 0 1 1 1 1 0 0 0 0 0 0 0 0 0 0 0 0 0 0 0 0 0 0 1 1 0 0 0
1 2 1 0 0 0 0 0 0 0 0 0 0 1 2 3 3 3 3 3 2 2 2 3 3 3 2 1 1 0 1 1 1 0 0 1 1 1 1 1 1 0 0 0 0 0 0 0 0
2 2 1 0 0 0 0 0 0 0 0 0 0 0 1 1 1 2 3 3 3 3 3 4 4 5 5 4 2 1 2 2 2 1 1 2 3 2 1 1 2 1 1 1 0 1 1 1 0
3 2 0 0 0 0 0 0 0 0 0 0 0 0 0 0 0 1 2 3 3 3 3 4 4 5 7 6 4 2 2 3 3 2 3 4 5 3 2 3 3 3 2 2 2 2 2 2 1
2 1 0 0 0 0 0 0 0 0 0 0 0 0 0 0 0 0 1 3 3 3 4 4 4 5 6 8 7 4 2 3 3 3 5 7 7 5 5 5 5 4 4 4 4 4 4 4 4
1 1 0 0 0 0 0 0 0 0 0 0 0 0 0 0 1 1 1 3 3 3 4 4 3 4 5 6 7 6 4 4 4 5 7 8 8 5 5 6 6 6 5 5 5 5 4 5 5
0 0 0 0 0 0 0 1 1 0 0 0 0 0 1 1 2 2 2 3 3 3 4 4 4 4 4 4 5 6 7 6 6 7 7 7 6 5 4 6 7 6 5 5 5 5 5 5 5
0 0 0 0 0 0 1 2 2 1 0 0 0 1 2 3 2 1 1 2 3 3 5 6 6 6 5 3 3 5 6 6 6 6 6 5 5 4 4 5 6 6 5 5 5 5 4 5 5
0 0 0 0 0 0 2 3 3 1 1 0 0 1 2 3 2 1 0 1 2 4 8 10 11 10 7 4 3 4 4 3 3 4 4 4 4 4 4 5 5 5 5 5 6 6 5 5 6
0 0 0 0 0 0 1 2 2 2 2 1 0 0 2 3 2 1 0 1 3 7 11 15 15 13 10 7 5 4 3 2 2 2 3 4 4 4 5 5 6 6 6 7 7 8 6 4 5
0 0 0 0 0 0 0 1 1 1 1 1 0 1 2 3 2 1 1 2 5 8 11 14 18 18 17 12 7 4 3 3 1 1 3 4 4 5 7 7 7 7 8 8 7 7 6 4 3
0 0 0 0 0 0 0 0 1 1 0 1 2 3 4 4 3 2 2 3 5 7 8 14 20 23 23 19 13 7 4 2 1 1 3 5 6 7 9 11 10 9 8 7 6 5 4 2 1
0 0 0 0 0 0 0 0 0 0 0 1 4 6 7 6 4 3 3 4 5 5 8 13 21 26 27 25 21 16 10 5 4 4 7 9 10 10 12 13 14 12 8 6 5 4 3 2 1
0 0 0 0 0 0 0 0 0 0 1 3 6 9 11 10 7 6 6 6 7 8 9 13 21 28 29 27 25 21 16 12 10 11 12 12 12 13 14 15 17 16 12 8 7 6 5 5 5
0 0 0 0 0 0 0 0 1 1 4 7 8 10 12 12 11 11 11 10 10 10 11 14 22 29 29 26 24 22 19 15 13 14 14 13 12 14 15 17 19 19 16 14 11 9 8 9 10
0 0 0 0 0 0 0 0 2 3 6 10 12 11 12 12 12 14 14 13 11 11 12 17 26 31 30 27 24 22 20 15 12 14 15 14 13 14 16 17 19 19 19 18 16 13 11 11 13
0 0 0 0 0 0 0 0 2 3 7 12 14 13 11 11 11 13 15 14 11 11 14 19 27 31 31 28 25 22 19 16 14 16 17 15 14 14 16 17 18 19 19 19 18 16 13 12 13
0 0 0 0 0 0 0 0 2 4 8 12 15 14 11 11 13 14 16 15 13 12 14 19 26 31 32 31 28 23 20 18 17 17 18 16 14 14 14 14 16 17 17 20 20 17 12 9 9
0 0 0 0 0 0 0 1 2 6 9 13 15 14 12 13 16 17 17 18 18 16 16 20 26 30 32 32 30 25 22 20 19 20 20 18 15 13 13 13 13 13 15 19 20 16 11 7 6
0 0 0 0 0 0 0 1 4 7 11 14 15 14 13 14 18 18 17 20 22 21 21 23 27 29 30 30 29 27 25 22 20 22 22 19 15 12 12 12 12 11 14 18 19 16 12 9 8

GEFSSGP_con_prob3kmehi_258.txt.gz
EHI
7 13 22 27 20 7 1 0 0 0 0 0 0 0 0 0 0 0 0 1 3 4 3 3 3 2 2 2 2 2 1 1 1 0 0 0 1 2 3 3 1 0 0 0 0 0 1 3 5
9 17 25 24 14 4 0 0 0 0 0 0 0 0 0 0 0 0 0 0 2 3 3 3 3 2 1 1 1 1 0 0 0 0 0 0 0 1 2 2 1 0 0 0 0 0 1 2 3
12 18 21 15 6 1 0 0 0 0 0 0 0 0 0 0 0 0 0 0 1 2 3 4 4 3 1 1 0 0 0 0 0 0 0 0 0 0 1 1 1 0 0 0 0 0 0 1 1
14 15 12 6 2 0 0 0 0 0 0 0 0 0 0 0 0 0 0 0 1 2 3 4 5 4 1 0 0 0 0 0 0 0 0 0 1 0 0 0 0 0 0 0 0 0 0 0 0
12 10 5 1 0 0 0 0 0 0 0 0 0 0 0 0 0 0 1 1 1 2 3 3 4 3 1 0 0 0 0 0 0 0 0 0 0 0 0 1 1 0 0 1 1 1 0 0 1
7 5 1 0 0 0 0 0 0 1 0 0 0 0 0 0 0 0 1 1 0 1 2 3 3 2 1 0 0 0 0 0 0 1 1 0 0 1 2 4 3 2 2 2 2 2 1 1 2
3 2 0 0 0 0 0 0 0 0 0 0 0 0 0 0 0 0 1 1 0 0 1 2 2 2 2 2 1 0 0 0 1 2 3 3 3 4 5 6 5 4 4 4 3 3 3 3 4
1 0 0 0 0 0 0 0 0 0 0 0 0 0 0 0 0 0 0 0 0 0 0 1 2 4 5 3 1 1 1 2 4 5 7 8 8 8 8 8 6 6 6 5 4 4 6 7 8
0 0 0 0 0 0 0 0 0 0 0 0 0 0 0 0 0 0 1 1 2 1 0 1 2 4 4 3 3 4 5 6 7 9 11 11 11 9 8 7 7 7 7 7 6 7 9 9 9
0 0 0 0 0 0 0 0 0 0 0 0 0 0 0 0 0 1 2 3 3 2 2 3 4 3 2 2 4 5 6 8 9 10 10 10 9 7 5 5 8 9 9 9 10 10 10 8 6
0 0 0 0 0 0 0 0 1 1 0 0 0 0 0 1 1 2 2 3 3 4 4 5 7 7 4 2 2 3 5 7 9 8 8 7 6 5 3 5 9 11 10 10 11 11 10 8 6
0 0 0 0 0 0 0 0 1 1 0 0 0 0 1 2 2 1 1 3 4 5 6 6 7 8 7 4 2 3 4 6 7 8 7 6 6 4 4 7 9 9 9 10 10 9 9 9 7
0 0 0 0 0 0 0 0 1 1 0 0 0 0 1 2 2 1 1 3 4 5 7 7 7 7 8 7 5 5 7 9 10 9 8 8 8 7 7 9 9 7 7 9 10 7 7 7 7
0 0 0 0 0 0 0 0 0 0 0 0 0 0 2 3 3 2 2 2 3 6 8 9 10 10 10 10 10 9 11 13 12 10 11 11 10 11 13 13 12 9 7 8 9 7 6 6 6
0 0 0 0 0 1 0 0 0 0 0 0 0 2 4 5 5 3 2 2 4 8 11 11 12 13 13 12 12 12 11 10 10 11 13 13 11 12 15 15 13 11 9 8 8 8 7 7 6
0 0 0 0 0 0 0 0 0 0 0 0 1 3 6 7 5 3 3 4 9 14 15 11 11 14 16 15 14 13 11 10 11 14 15 13 11 11 12 11 11 11 11 8 7 6 6 6 6
0 0 0 0 0 0 1 1 1 0 0 0 1 4 6 7 6 4 5 8 14 21 21 14 12 14 16 17 17 16 14 15 17 18 19 16 13 13 13 11 11 11 11 9 7 6 5 5 5
0 0 0 0 0 1 2 4 3 1 1 2 4 5 8 10 9 8 7 9 17 26 28 21 18 18 18 18 19 18 16 17 19 22 23 21 17 16 16 15 13 11 11 9 8 6 4 5 7
0 0 0 0 0 1 3 5 4 3 4 7 7 7 10 15 16 13 10 12 22 32 34 30 26 24 22 21 20 17 15 16 18 22 24 22 19 16 17 16 15 13 13 12 10 8 6 7 8
0 0 0 0 1 2 3 4 4 3 5 8 10 9 12 18 21 19 15 17 27 36 38 36 33 30 26 23 19 14 11 12 15 19 23 24 21 17 15 17 16 15 15 15 14 13 11 10 9
0 0 0 0 1 2 3 4 5 4 4 7 10 12 15 19 24 24 23 25 32 39 41 40 40 37 32 26 20 15 13 13 16 23 27 28 25 20 18 18 17 16 16 16 17 17 16 14 12
0 0 0 0 0 1 2 4 7 7 6 7 9 13 17 22 28 30 30 31 35 40 45 48 48 47 41 33 24 20 19 17 20 25 30 31 29 26 25 24 23 20 18 17 16 16 17 16 13
0 0 0 0 0 0 1 3 7 10 9 8 9 12 19 25 30 33 34 35 34 37 47 55 57 55 50 41 32 28 24 20 20 23 27 30 31 30 30 30 29 26 22 19 17 16 17 14 12
0 0 0 0 0 0 0 2 7 10 9 8 9 12 18 26 30 35 40 42 37 36 46 57 61 60 56 49 41 37 32 25 21 21 24 28 30 29 30 31 31 30 27 23 20 18 17 14 12
0 0 1 0 0 0 0 3 6 8 8 7 8 11 17 24 32 40 51 54 46 41 47 57 62 62 59 53 47 45 40 30 23 20 22 25 26 26 28 32 33 32 30 28 25 23 20 17 15
0 0 0 0 0 0 2 4 6 7 8 9 10 13 17 24 34 45 54 57 50 46 50 57 62 62 58 53 49 47 43 32 25 22 22 23 23 25 31 35 35 32 30 29 28 26 23 20 18
0 0 0 0 0 0 2 5 7 7 9 12 15 17 18 22 32 41 47 50 50 50 53 58 63 62 57 53 49 47 44 37 30 28 26 23 22 25 32 36 33 29 28 28 27 27 25 22 22
0 0 0 0 0 0 1 4 6 8 10 15 19 21 21 21 28 36 41 46 50 54 57 61 65 63 58 54 51 48 47 43 37 34 30 26 24 25 29 31 29 27 27 27 26 25 24 24 24
0 0 0 0 0 0 0 2 5 8 11 16 22 25 24 23 26 33 38 43 51 56 59 65 68 67 61 57 54 52 50 48 43 37 32 30 29 28 27 27 26 25 26 26 26 24 23 23 23
0 0 0 0 0 0 0 1 4 7 12 19 25 27 25 23 26 32 36 42 50 57 62 67 71 69 64 59 57 54 53 52 47 39 33 32 33 31 27 25 25 25 25 25 26 25 23 21 20

GEFSSGP_con_prob3kmehi_264.txt.gz
EHI
8 4 1 0 0 0 0 0 0 0 0 0 0 0 0 0 0 0 1 1 1 1 2 4 6 6 5 4 3 3 3 2 2 2 1 0 0 0 0 0 0 0 0 0 0 1 2 2 1
3 2 0 0 0 0 0 0 0 0 0 0 0 0 0 0 0 0 0 1 1 1 2 4 6 7 6 4 3 3 3 2 1 1 0 0 0 0 0 0 0 1 1 0 0 0 1 1 0
0 0 0 0 0 0 0 0 0 0 0 0 0 0 0 0 0 1 2 2 2 1 1 4 6 7 7 5 4 3 3 2 1 0 0 0 0 0 0 0 0 1 1 0 0 0 0 0 0
1 1 1 0 0 0 0 0 0 0 0 0 0 0 0 0 0 2 3 3 2 1 1 3 7 8 7 6 6 4 3 2 1 0 0 0 0 0 0 0 0 1 1 0 0 0 0 0 1
1 2 2 1 0 0 0 0 0 0 0 0 0 0 0 0 1 2 3 3 3 1 0 3 7 8 7 7 7 5 4 2 1 1 1 0 0 1 1 1 1 1 2 1 1 1 0 1 1
2 3 2 1 0 0 0 0 0 0 0 0 0 0 0 0 1 2 3 3 3 2 0 2 5 5 6 7 7 6 4 2 1 2 2 2 2 2 2 2 2 3 3 3 3 3 2 3 3
3 3 2 1 0 0 1 1 0 0 0 0 0 0 0 0 0 1 1 2 2 1 0 1 1 2 3 5 5 5 5 3 3 4 5 5 5 4 4 4 4 4 4 4 5 5 5 5 6
2 1 1 0 0 1 1 1 0 0 0 0 0 0 0 1 1 1 0 1 1 0 0 0 0 0 1 1 2 3 5 6 7 7 8 8 8 7 6 6 6 6 5 6 7 7 6 7 7
1 0 0 0 0 1 1 1 0 0 0 0 1 1 1 2 2 2 1 0 0 0 0 0 0 0 0 0 0 1 3 6 8 8 7 8 8 7 6 7 8 8 8 9 9 8 7 6 6
1 0 0 0 0 0 0 0 0 0 0 1 2 2 3 3 3 2 1 0 0 0 0 0 0 0 0 0 0 0 1 3 4 4 3 4 5 4 5 6 8 9 10 9 8 8 7 5 4
1 0 0 0 0 0 0 0 0 0 0 1 3 3 3 3 2 1 0 0 0 0 0 0 0 0 0 0 0 0 0 0 0 1 1 1 1 1 2 3 5 6 6 5 5 5 4 3 2
1 0 0 0 0 0 0 0 0 0 1 2 4 4 4 3 2 2 1 1 1 1 0 0 0 0 0 0 0 0 0 0 1 1 1 0 0 0 0 1 2 2 2 2 1 1 1 1 1
0 0 0 0 0 0 0 0 0 1 2 4 5 6 5 3 3 3 2 2 4 4 2 1 0 0 0 0 0 0 0 1 1 1 1 0 0 0 0 0 0 0 0 1 1 0 0 0 0
0 0 0 0 0 0 0 0 0 1 3 5 6 6 6 5 4 3 1 3 5 6 5 3 1 0 0 0 0 0 0 1 0 0 1 1 1 1 1 0 0 0 1 1 1 0 0 0 0
0 0 0 0 0 0 0 1 1 2 5 6 7 7 7 7 6 2 1 4 7 8 6 4 2 1 0 0 0 0 1 1 1 2 3 3 3 3 2 1 1 1 1 1 1 0 0 0 0
0 0 0 0 0 0 0 1 3 4 6 7 7 8 9 8 5 2 3 7 10 10 9 6 4 1 0 0 1 1 1 3 4 5 5 5 5 5 4 3 2 2 1 0 0 0 0 0 0
0 0 0 0 0 1 1 2 4 6 8 7 7 8 10 8 5 4 7 12 13 12 10 6 3 1 1 1 1 2 2 3 5 6 7 8 9 8 6 4 3 3 2 1 0 0 0 0 0
0 0 0 0 1 1 2 3 5 8 8 6 6 8 9 8 6 7 11 16 16 12 8 5 3 2 1 1 1 2 2 3 4 6 8 10 10 9 6 4 3 2 2 1 0 0 0 0 0
0 0 0 1 1 1 1 2 4 7 7 6 6 7 7 7 7 9 13 17 16 11 7 5 5 4 3 2 2 2 2 2 3 4 6 8 8 7 7 6 4 2 1 0 1 2 1 0 0
0 0 1 1 0 0 1 1 3 4 5 5 4 5 6 7 8 11 14 17 17 13 9 7 7 7 6 5 5 2 1 1 2 3 4 5 5 5 7 8 6 4 2 2 2 3 2 0 0
0 0 0 0 0 0 1 2 3 3 3 3 2 3 6 8 11 15 18 20 19 17 13 10 9 10 10 10 8 4 1 0 2 3 4 5 6 7 8 8 7 7 5 4 4 3 1 0 0
0 0 0 0 0 0 1 1 3 4 2 2 2 3 6 9 11 15 20 23 22 21 20 18 15 14 13 13 12 8 3 1 2 5 6 7 8 10 11 9 7 7 6 6 5 3 1 0 0
0 0 0 0 0 0 0 1 3 3 2 2 3 4 7 10 10 12 18 23 24 24 26 26 23 18 14 14 13 10 5 3 4 5 8 9 10 11 12 11 9 8 7 6 4 2 0 0 0
0 0 0 0 0 0 0 1 2 2 2 2 4 6 9 11 12 12 17 22 25 27 30 33 31 22 16 14 13 11 8 6 6 7 8 10 10 10 10 10 10 9 7 6 4 1 0 0 0
0 0 0 0 0 0 0 0 1 1 1 2 4 7 10 12 14 15 19 24 27 30 33 36 36 29 21 18 16 14 12 11 9 9 10 11 9 7 7 8 8 8 7 6 5 3 1 1 1
0 0 0 0 0 0 0 0 0 0 0 1 4 9 11 14 16 18 22 27 30 33 37 39 38 35 29 25 23 21 18 16 12 11 11 10 7 5 4 5 5 6 7 7 6 5 4 3 2
0 0 0 0 0 0 0 0 0 0 0 1 5 11 14 15 19 21 23 27 31 35 39 41 41 40 37 33 30 26 23 20 16 13 11 7 5 4 3 2 3 6 7 7 6 5 5 4 2
0 0 0 0 0 0 0 0 0 0 0 2 7 12 16 17 20 22 22 24 27 33 39 43 44 43 41 37 33 28 24 22 19 17 14 9 5 3 1 1 3 5 7 8 6 4 4 3 2
0 0 0 0 0 0 0 0 0 1 2 4 8 13 16 17 20 21 20 20 24 31 40 44 44 43 41 38 35 30 26 24 22 21 17 12 6 3 1 1 3 5 7 8 7 4 3 3 3
0 0 0 0 0 0 0 0 1 2 4 7 11 15 17 17 19 20 19 19 23 32 40 44 44 42 40 38 35 33 30 26 23 20 17 13 8 4 3 2 3 4 6 7 7 6 4 4 5

GEFSSGP_con_prob3kmehi_270.txt.gz
EHI
5 3 1 0 0 0 0 0 0 0 0 0 0 0 0 0 0 0 0 1 0 0 1 3 5 5 2 2 3 4 5 5 3 1 0 0 0 0 0 0 0 0 0 0 0 0 1 1 1
2 1 0 0 0 0 0 0 0 0 0 0 0 0 0 0 0 0 1 1 1 0 1 3 5 5 3 3 5 5 5 6 4 1 0 0 0 0 0 0 0 0 0 0 0 0 0 0 0
1 0 0 0 0 0 0 0 0 0 0 0 0 0 0 0 0 0 1 1 1 0 1 3 5 6 4 4 5 4 4 5 4 1 0 0 0 0 0 0 0 0 0 0 0 0 0 0 1
1 0 0 0 0 0 0 0 0 0 0 0 0 0 0 0 0 0 0 1 0 0 0 2 5 5 4 4 4 4 3 4 3 1 0 0 0 0 0 0 0 0 0 0 0 0 1 1 2
0 0 0 0 0 0 0 0 0 0 0 0 0 0 0 0 0 0 0 1 0 0 0 2 5 5 3 3 3 3 3 4 4 2 1 0 1 1 1 1 1 2 1 1 1 2 2 3 3
0 0 0 0 0 0 0 0 0 0 0 0 0 0 0 0 0 0 0 0 0 0 0 1 3 3 3 3 3 3 4 5 5 3 1 1 2 2 3 3 4 4 3 3 4 5 4 5 5
0 0 0 0 0 0 0 0 0 0 0 0 0 0 0 0 0 0 0 0 0 0 0 0 1 1 2 3 3 3 4 5 5 3 2 2 3 3 3 4 4 4 4 4 5 6 6 6 6
0 0 0 0 0 0 0 0 0 0 0 0 0 0 0 0 0 0 0 0 0 0 0 0 0 0 1 2 2 2 3 4 4 3 3 3 3 3 3 2 2 2 2 4 5 5 6 6 6
0 0 0 0 0 0 0 0 0 0 0 0 0 0 0 0 0 0 0 0 0 0 0 0 0 0 0 1 1 1 1 1 1 1 2 2 1 1 1 1 2 1 1 3 5 5 5 5 5
0 0 0 0 0 0 0 0 0 0 0 0 0 1 1 0 0 0 0 0 0 0 0 0 0 0 0 0 0 0 0 0 0 0 1 1 0 0 0 1 2 1 1 1 3 4 3 3 2
0 0 0 0 0 0 0 0 0 0 0 1 2 4 3 1 0 0 1 1 2 1 0 0 0 0 0 0 0 0 0 0 0 0 0 0 0 0 0 0 1 1 0 0 1 1 1 1 0
1 1 0 0 0 0 0 0 0 0 1 3 5 6 4 1 0 0 1 2 2 1 0 0 0 0 0 0 0 0 0 0 0 0 0 0 0 0 0 0 0 0 0 0 0 0 0 0 0
0 0 0 0 0 0 1 1 0 1 3 5 7 7 5 2 0 0 0 1 1 1 0 0 0 0 0 0 0 0 0 0 0 0 0 0 0 0 0 0 0 0 0 0 0 0 0 0 0
0 0 0 0 0 1 2 2 1 2 6 8 8 7 5 2 0 0 0 0 0 0 0 0 0 0 0 0 0 0 0 0 0 0 0 0 0 0 0 0 0 0 0 0 0 0 0 0 0
0 0 0 0 0 1 2 2 2 3 7 9 9 7 4 1 0 0 0 0 0 0 0 0 0 0 0 0 0 0 0 0 0 0 0 0 0 0 0 0 0 0 0 0 0 0 0 0 0
0 0 0 0 0 0 1 2 3 4 6 7 7 6 5 2 0 0 0 0 0 0 0 0 0 0 0 0 0 0 0 1 1 1 0 0 0 0 0 0 0 0 0 0 0 0 0 0 0
0 0 0 0 0 0 0 1 3 4 4 4 4 4 4 2 1 0 0 0 0 1 1 1 0 0 0 0 0 0 0 1 2 2 1 0 0 0 0 0 0 0 0 0 0 0 0 0 0
0 0 0 0 0 0 0 2 4 4 3 3 3 3 2 2 1 1 1 1 2 2 2 2 1 0 0 0 0 0 0 1 2 2 1 0 0 0 0 0 0 0 0 0 0 0 0 0 0
0 0 0 0 0 0 1 2 4 5 4 3 3 2 1 2 2 2 2 3 4 4 3 2 1 0 0 0 0 0 0 0 1 2 2 1 0 0 1 1 1 0 0 0 0 0 1 1 0
0 1 1 1 0 0 1 2 3 5 5 3 2 1 1 2 1 1 2 4 5 5 4 2 1 0 0 0 0 0 0 0 0 1 1 1 1 2 3 3 2 0 0 0 0 1 2 1 1
0 1 1 1 0 0 1 1 1 3 5 3 1 0 1 1 1 1 3 5 6 5 4 2 1 0 1 1 1 1 1 0 0 0 0 0 2 5 6 6 4 1 0 0 0 1 1 1 0
0 0 0 0 0 0 0 0 0 1 2 2 2 1 0 0 0 2 5 7 6 5 4 3 1 1 2 2 2 2 2 1 0 0 0 0 1 4 6 6 4 1 0 0 0 0 0 0 0
0 0 0 0 0 0 0 0 0 0 0 1 1 1 0 0 1 3 6 8 8 7 6 4 2 2 3 3 3 3 3 2 1 0 0 0 0 1 3 3 2 0 0 0 0 0 0 0 0
0 0 0 0 0 0 0 0 0 0 0 0 0 0 0 1 2 3 5 8 9 9 8 5 2 1 3 3 4 4 4 3 2 2 2 1 0 1 1 1 1 0 0 0 0 0 0 0 0
0 0 0 0 0 0 0 0 0 0 0 0 0 1 1 3 4 4 5 7 10 11 9 5 1 1 3 4 5 6 7 5 4 4 4 2 1 2 2 1 1 1 1 0 0 0 0 0 0
0 0 0 0 0 0 0 0 0 0 0 0 1 2 3 4 4 5 6 7 9 11 9 5 2 2 3 5 6 7 7 5 3 4 3 2 2 2 2 1 2 3 2 1 0 0 0 0 0
0 0 0 0 0 0 0 0 0 0 0 1 3 4 4 3 4 4 4 5 7 10 11 9 7 6 6 6 6 6 6 4 2 2 2 2 2 2 1 2 3 3 2 1 0 0 0 0 0
0 0 0 0 0 0 0 0 0 0 0 2 5 5 4 4 4 3 3 3 5 8 11 12 12 11 10 7 5 6 5 4 3 2 3 3 3 2 2 3 3 3 3 2 1 1 1 0 0
0 0 0 0 0 0 0 0 0 0 1 3 5 5 4 5 5 4 3 4 5 7 9 11 13 12 10 6 4 5 5 6 6 5 5 4 4 3 3 3 3 4 4 3 2 2 1 0 0
0 0 0 0 0 0 0 0 0 0 1 3 5 5 4 5 5 4 5 5 6 6 7 8 11 11 8 5 4 4 5 5 6 6 5 4 4 3 3 3 4 5 5 3 2 1 1 0 0

GEFSSGP_con_prob3kmehi_276.txt.gz
EHI
4 5 6 5 2 1 0 0 0 0 0 0 0 0 0 0 0 0 0 0 0 0 1 3 4 4 3 2 1 1 0 0 1 2 3 3 3 3 3 2 1 0 0 1 0 0 0 0 0
4 6 7 5 2 0 0 0 0 0 0 0 0 0 0 0 1 1 0 0 0 0 1 3 4 3 3 3 2 2 1 0 1 2 3 3 3 3 2 1 0 0 0 1 0 0 0 0 0
3 5 5 3 1 0 0 0 0 0 0 0 0 0 0 1 2 2 1 0 0 0 1 2 3 4 3 3 3 3 2 1 0 1 1 2 2 1 1 0 0 0 0 0 0 0 0 0 0
1 2 2 1 0 0 0 0 0 0 0 0 0 0 0 1 2 2 1 0 0 0 0 1 3 4 4 3 3 2 3 2 1 0 0 1 1 0 0 0 0 0 1 1 0 0 0 0 0
1 1 1 0 0 0 0 0 0 0 0 0 0 0 0 0 1 1 0 0 0 0 0 1 2 3 3 2 2 2 2 3 2 1 1 1 2 1 1 0 0 1 2 1 1 2 2 1 1
2 1 0 0 0 0 0 0 0 0 0 0 0 0 0 0 0 0 0 0 0 0 0 0 1 1 2 2 2 2 3 3 3 3 3 3 4 5 4 2 2 3 3 1 1 3 4 2 2
1 1 0 0 0 0 0 0 0 0 0 0 0 0 0 0 0 0 0 0 0 0 0 0 0 1 2 2 2 3 3 4 5 5 5 5 7 8 6 4 3 3 3 1 2 3 4 3 3
0 0 0 0 0 0 0 0 0 0 0 0 0 0 0 0 0 0 1 0 0 0 0 0 0 0 1 1 1 3 4 4 4 6 6 7 7 6 5 3 2 2 2 2 2 3 3 3 3
0 0 0 0 0 0 0 0 0 0 0 0 0 0 0 0 0 0 0 0 0 0 0 0 0 0 0 0 1 2 4 3 3 5 6 7 6 4 2 2 2 2 2 2 3 4 3 3 3
0 0 0 0 0 0 0 0 0 0 0 0 0 0 0 0 0 0 0 0 1 1 0 0 0 0 0 1 2 3 3 2 2 3 5 7 7 5 3 3 4 3 1 2 3 4 3 2 1
0 0 0 0 0 0 0 0 0 0 0 0 0 0 0 0 0 0 0 1 2 2 1 0 0 0 0 1 2 3 2 2 2 3 4 5 6 6 6 5 4 2 1 1 2 2 2 1 0
0 0 0 0 0 0 0 0 0 0 0 0 0 1 0 0 0 0 1 2 3 2 1 1 1 0 0 2 3 2 1 2 4 5 5 4 5 6 5 3 2 1 0 0 1 2 1 0 0
0 0 0 0 0 0 0 0 0 0 0 0 1 1 1 0 0 0 1 2 2 1 1 2 1 0 0 3 4 2 1 2 4 6 6 4 5 5 4 2 1 1 0 0 0 1 0 0 1
0 0 0 0 0 0 0 0 0 0 1 2 3 3 2 1 2 1 1 1 0 0 0 1 1 0 0 2 4 3 1 2 3 4 5 5 5 4 3 3 2 0 0 0 0 0 0 0 1
0 0 0 0 0 0 0 0 1 1 3 5 5 4 4 3 3 3 2 1 0 0 0 0 0 1 1 1 2 2 1 1 1 1 3 4 4 4 4 4 2 1 1 0 0 0 0 0 1
0 0 0 0 0 0 0 1 2 3 4 5 5 4 4 4 4 3 2 1 0 1 1 1 1 1 2 2 1 1 0 0 0 0 1 2 3 5 6 5 4 3 2 1 0 0 0 0 0
0 0 0 0 0 0 0 1 3 3 4 5 4 3 3 4 4 4 3 1 0 1 2 2 1 1 2 3 2 1 1 1 0 0 1 1 1 3 5 6 6 5 3 1 1 0 0 0 0
0 0 0 0 0 0 0 1 3 4 4 5 4 3 4 5 5 4 3 2 1 1 1 2 2 2 2 4 4 3 2 2 1 1 2 2 1 1 2 5 7 6 4 2 1 0 0 1 1
0 0 0 0 0 0 0 1 3 4 4 4 5 4 4 6 6 5 4 3 2 3 4 4 4 5 5 6 6 5 2 2 1 2 3 3 2 2 2 3 5 7 7 5 2 0 0 1 2
0 0 0 0 0 0 0 0 2 4 4 4 5 5 6 7 6 5 5 3 2 3 5 6 7 8 8 8 7 6 4 2 1 2 4 5 4 3 2 2 4 7 9 7 3 1 0 1 2
0 0 0 0 0 0 0 0 2 3 4 4 5 6 8 8 6 4 5 4 3 3 5 6 7 8 9 9 9 9 8 5 3 3 5 6 4 2 1 2 4 7 8 6 3 1 1 2 3
0 0 0 0 0 0 0 0 1 3 3 3 5 8 11 9 6 4 4 5 5 4 5 6 8 9 10 10 9 10 10 8 6 5 6 5 4 2 1 1 3 5 4 3 3 1 2 4 4
0 0 0 0 0 0 0 0 1 2 3 3 5 8 12 11 7 5 4 4 6 6 7 9 11 12 12 11 11 11 10 9 7 6 6 4 3 3 2 2 3 3 3 2 1 1 2 5 5
0 0 0 0 0 0 0 0 0 1 2 2 4 8 12 13 9 7 5 5 8 9 10 12 15 16 14 13 13 13 12 9 7 6 5 4 3 4 4 4 4 4 3 2 1 0 2 5 5
0 0 1 0 0 0 0 0 0 0 1 3 5 9 12 12 9 7 7 8 10 13 14 15 19 20 18 16 14 14 12 9 8 7 6 4 4 4 5 5 5 4 3 2 1 1 2 3 4
0 0 0 0 0 0 0 0 0 1 2 3 7 12 13 10 7 6 7 9 11 14 16 18 22 24 23 19 16 13 10 9 9 10 8 6 5 5 5 5 4 3 3 2 2 2 2 3 4
0 0 0 0 0 0 0 0 0 1 3 5 10 13 13 10 6 5 6 8 10 13 16 19 24 26 23 20 17 14 11 10 11 12 12 10 7 5 4 3 2 3 3 3 3 4 4 5 5
0 0 0 0 0 0 0 0 1 2 4 8 13 15 13 9 5 4 4 6 8 12 15 19 23 24 22 18 15 14 13 13 13 14 14 11 8 6 4 3 3 3 3 4 5 5 5 6 7
0 0 0 0 0 0 0 0 2 3 5 11 16 17 14 8 5 4 5 6 10 13 16 18 22 23 20 17 14 14 15 15 15 14 12 10 8 6 5 4 4 4 4 4 5 5 5 6 7
0 0 0 0 0 0 0 0 1 3 6 12 17 17 14 9 5 5 6 9 14 17 17 18 21 23 20 16 16 17 18 18 16 13 11 9 7 6 6 5 5 5 5 4 4 4 4 5 6

GEFSSGP_con_prob3kmehi_282.txt.gz
EHI
4 11 22 29 24 10 2 0 0 0 0 0 0 0 0 0 0 0 0 0 1 3 3 4 4 4 3 2 1 0 0 0 0 0 0 0 0 0 1 1 2 1 1 2 4 4 4 4 3
7 15 25 25 16 5 1 0 0 0 0 0 0 0 0 0 0 0 0 0 1 2 3 3 4 3 3 3 2 1 0 0 0 0 0 0 0 0 0 1 2 1 0 1 2 3 4 3 2
12 20 25 18 7 1 0 0 0 0 0 0 0 0 0 0 0 0 0 0 1 1 3 3 3 3 3 4 4 3 1 0 0 0 0 0 0 0 0 1 2 1 0 0 1 2 3 2 1
17 22 21 11 4 1 0 0 0 0 0 0 0 0 0 0 0 0 0 0 0 1 2 4 4 4 4 5 6 5 2 1 0 0 1 1 2 1 1 1 1 1 1 1 1 2 1 1 0
22 22 15 6 1 0 0 0 0 0 0 0 0 0 0 0 0 0 0 0 0 1 3 4 6 6 5 5 6 5 3 2 2 2 3 3 3 3 2 1 0 1 1 2 3 3 1 1 0
21 18 8 2 0 0 0 0 0 0 0 0 0 0 0 0 0 0 0 0 1 2 3 4 7 7 6 5 5 4 3 2 3 5 5 5 5 5 3 1 0 0 1 3 4 3 3 2 1
13 9 4 1 0 0 0 0 0 0 0 0 0 0 0 0 1 1 2 2 2 2 2 3 6 7 7 6 6 4 3 3 5 6 7 8 10 9 7 4 2 1 1 2 3 3 3 3 3
5 3 2 1 0 0 0 0 0 0 0 0 0 0 0 1 2 3 3 3 1 1 0 1 3 5 5 5 5 6 6 5 7 8 9 11 12 11 9 7 6 4 3 4 4 5 5 5 5
1 1 1 0 0 0 0 0 0 0 0 0 0 1 1 1 1 1 2 1 1 0 0 0 1 1 2 2 3 6 7 7 8 9 11 12 10 7 6 7 8 8 7 8 9 9 9 8 8
0 0 0 0 0 0 0 0 0 0 1 1 1 1 2 2 1 1 0 1 1 0 0 0 0 0 0 0 2 3 5 8 9 8 10 10 7 4 2 4 8 9 9 10 11 11 10 8 7
0 0 0 0 0 0 0 0 0 0 1 2 3 3 3 3 4 3 2 1 1 0 0 0 0 0 0 1 2 2 3 6 6 7 8 8 7 4 2 3 5 7 8 8 8 7 5 4 3
0 0 0 0 0 0 0 0 0 0 1 2 3 3 3 4 6 5 3 1 1 0 0 0 0 0 1 4 5 3 3 4 5 6 8 9 8 6 5 4 4 5 5 5 4 3 1 0 0
0 0 0 0 0 0 0 0 0 0 1 2 2 3 3 5 6 5 2 1 1 0 0 0 0 1 3 7 8 6 4 5 6 7 8 9 10 9 8 9 9 7 5 3 1 1 1 0 0
0 0 0 0 0 0 0 0 0 0 1 3 4 3 4 6 6 5 2 1 1 0 1 2 2 2 3 7 8 7 6 8 9 9 10 12 14 14 12 13 12 9 6 4 2 2 2 1 0
0 0 0 0 0 0 0 0 0 0 2 4 5 4 5 7 8 7 4 1 1 2 4 4 3 3 4 5 6 6 7 10 11 12 13 14 16 17 16 13 10 9 9 9 8 6 3 1 1
0 0 0 0 0 0 0 0 1 0 1 4 5 5 6 9 11 10 6 4 4 5 6 4 4 5 6 6 6 7 10 13 14 14 16 16 16 17 15 11 10 10 11 12 11 8 3 1 2
0 0 0 0 0 0 0 0 0 0 1 3 5 6 9 12 13 12 10 8 6 7 7 5 6 9 11 10 9 10 13 15 15 14 15 16 15 13 11 11 12 11 10 10 10 8 6 5 4
0 0 0 0 0 0 0 0 0 1 1 3 4 8 12 14 14 14 12 10 9 11 12 9 9 13 15 14 12 12 13 14 15 15 14 13 11 9 10 12 15 13 10 9 9 10 11 10 8
0 0 0 0 0 0 0 0 0 1 2 3 5 9 15 17 16 16 14 12 14 20 23 20 15 16 18 16 14 13 14 15 16 17 15 12 10 10 10 12 16 16 14 11 10 11 14 13 10
0 0 0 0 0 0 0 0 0 1 1 2 5 11 16 18 19 20 17 16 21 28 32 28 21 20 21 20 18 17 18 17 16 17 16 13 11 11 9 10 13 16 16 14 11 12 12 11 9
0 0 0 0 0 0 0 0 0 0 0 1 5 9 14 18 22 23 22 22 25 31 34 31 29 27 25 22 20 18 17 16 15 18 19 15 12 10 9 9 10 12 13 13 13 12 10 6 5
0 0 0 0 0 0 0 0 0 0 0 1 4 8 13 18 23 25 25 25 27 31 36 39 39 36 30 23 18 16 15 15 17 21 22 19 14 11 10 10 9 9 9 11 13 13 10 6 4
0 0 0 0 0 0 0 0 0 0 1 2 5 9 13 18 22 25 26 27 27 29 38 45 48 45 37 26 19 15 15 17 19 22 24 22 17 12 11 12 12 11 9 11 15 16 14 9 7
0 1 1 1 0 0 0 0 0 1 3 5 8 12 14 17 23 26 28 29 28 29 35 45 54 53 44 33 25 21 20 19 19 21 22 22 19 15 13 15 17 14 10 11 17 18 15 11 8
0 1 1 1 0 0 0 0 1 3 5 9 12 14 15 18 23 28 31 32 32 31 35 48 58 58 50 40 34 30 26 21 19 19 20 21 20 18 17 18 19 15 11 12 15 15 14 12 9
0 0 0 0 0 0 0 1 4 6 7 10 13 14 16 18 22 27 30 31 31 32 38 50 60 61 55 49 44 40 32 24 19 19 18 18 19 19 19 18 17 14 12 13 13 12 11 12 12
0 0 0 0 0 0 0 2 5 8 8 10 12 14 16 16 19 23 25 27 28 32 38 47 57 62 59 55 52 48 38 27 22 20 19 18 18 20 20 18 16 15 13 13 11 9 9 10 11
0 0 0 0 0 0 0 1 5 8 8 9 13 16 17 16 17 20 22 24 28 33 36 43 54 60 60 57 54 49 42 33 26 23 21 21 20 21 22 20 17 15 13 12 10 6 6 7 8
0 0 0 0 0 0 0 2 4 7 7 10 15 20 20 18 17 18 19 23 30 34 36 43 53 57 56 53 51 48 45 39 31 26 25 24 23 23 23 20 17 13 11 11 9 6 5 6 7
0 0 0 0 0 0 1 2 5 6 7 11 17 22 22 20 18 17 17 22 30 35 38 44 52 55 53 51 49 47 46 42 34 29 27 27 26 24 22 19 15 11 9 10 10 7 6 7 8

GEFSSGP_con_prob3kmehi_288.txt.gz
EHI
8 3 1 2 2 1 0 0 0 0 0 0 0 0 0 0 0 0 0 1 1 1 3 7 9 9 10 10 10 9 8 7 5 2 2 5 6 5 4 4 2 1 0 1 2 2 4 6 7
4 2 1 1 1 0 0 0 0 0 0 0 0 0 0 0 0 0 0 0 0 1 3 5 8 9 8 9 9 9 8 8 7 4 4 6 6 6 5 4 2 1 1 1 1 1 3 5 6
1 1 0 0 0 0 0 0 0 0 0 0 0 0 0 0 0 0 0 0 0 1 1 4 7 9 8 8 9 9 8 8 8 6 6 6 6 5 4 4 3 2 2 1 0 1 3 3 3
1 0 0 0 1 0 0 0 0 0 0 0 0 0 0 0 0 0 0 1 0 0 0 3 7 9 8 7 8 8 6 5 6 6 6 6 5 5 4 4 4 4 3 1 0 1 2 2 1
0 0 0 0 0 0 0 0 0 0 0 0 0 0 0 0 0 0 1 1 0 1 1 3 6 8 7 7 7 6 4 3 4 5 5 5 5 5 5 5 5 6 4 2 1 1 2 2 2
0 0 0 0 0 0 0 0 0 0 0 0 0 0 0 0 0 0 1 0 0 1 2 3 6 7 6 7 7 6 4 3 3 5 6 5 5 5 5 5 6 6 5 3 2 2 2 3 3
1 0 0 0 0 0 0 0 0 0 0 0 0 0 0 0 0 0 0 0 0 1 2 4 5 4 4 6 6 6 5 4 4 5 7 6 5 4 5 7 7 6 5 4 3 3 3 3 3
3 1 0 0 0 0 0 0 0 0 0 0 0 0 0 1 1 1 0 0 0 0 1 2 2 1 1 3 4 5 4 3 3 5 7 7 4 3 4 7 7 5 4 5 5 5 5 4 4
2 1 0 0 0 0 0 0 0 1 1 1 1 1 1 2 2 1 0 0 0 0 0 1 1 0 0 0 2 3 2 1 1 2 4 4 2 1 2 4 5 5 5 6 7 7 8 7 5
1 0 0 0 0 0 0 0 1 2 3 3 3 3 3 2 2 1 0 0 0 0 0 0 0 0 0 0 1 1 1 0 0 0 1 1 0 0 0 1 3 4 4 5 5 6 7 6 5
0 0 0 0 0 0 0 1 3 4 4 4 5 5 4 2 1 0 0 0 0 0 0 0 0 0 0 0 1 0 0 0 0 0 0 0 0 0 0 0 1 1 1 1 2 2 2 2 2
0 0 0 0 0 0 0 1 3 5 6 6 6 6 4 1 0 0 0 0 0 0 0 0 0 0 0 0 0 0 0 0 1 1 1 1 0 0 0 0 0 0 0 0 0 0 0 0 0
0 0 0 0 1 1 1 1 3 5 7 8 8 7 6 4 1 1 1 0 0 0 0 0 0 0 0 0 0 0 0 0 1 2 2 2 1 0 0 0 0 0 0 0 0 0 0 0 0
0 0 0 0 1 2 1 1 2 4 7 8 8 7 8 7 3 1 1 0 0 1 1 0 0 0 0 0 0 0 0 0 1 2 2 2 1 0 0 0 0 0 0 0 0 0 0 0 0
0 0 0 0 1 1 1 0 1 4 7 8 7 7 7 7 4 3 2 1 1 1 1 1 1 0 0 0 0 0 0 0 0 1 1 2 1 0 0 0 0 0 0 0 0 0 0 0 0
0 0 0 0 0 0 0 0 1 4 7 8 8 7 7 7 5 4 4 4 2 2 2 2 2 1 1 1 0 0 0 0 0 0 1 2 2 0 1 1 1 0 0 0 0 0 0 0 0
0 0 0 0 0 0 0 0 1 4 7 9 9 9 9 9 7 6 7 6 5 4 4 4 3 2 2 2 2 2 2 1 1 1 1 2 1 1 1 2 1 0 0 0 1 1 1 0 0
0 0 0 0 0 0 0 1 2 3 6 9 10 10 9 9 8 8 9 9 8 7 6 6 5 4 3 3 3 4 5 4 2 1 1 2 3 2 2 3 2 0 1 1 2 2 1 0 0
0 0 0 0 0 0 0 1 1 2 5 9 11 10 9 8 8 10 12 13 12 9 7 7 7 5 4 2 3 4 6 5 2 1 2 3 4 3 3 3 2 2 2 3 3 2 1 0 0
0 0 0 0 0 0 0 0 0 1 4 8 12 12 10 8 8 11 15 17 15 12 9 8 8 6 4 3 4 5 6 5 3 2 3 2 2 2 3 4 3 3 3 3 3 3 1 0 0
0 0 0 0 0 0 0 0 1 2 4 8 13 15 13 10 9 12 17 20 19 15 12 10 10 9 7 7 7 7 7 6 4 4 3 1 0 1 2 4 4 4 4 3 3 3 3 1 0
0 0 0 0 0 0 0 1 2 3 5 8 13 16 16 13 10 10 15 20 20 17 13 11 12 13 11 11 11 11 9 7 6 5 3 1 1 1 2 4 4 4 5 4 3 4 4 2 1
0 0 0 0 0 0 0 1 2 4 6 8 12 16 18 15 11 9 12 17 19 18 15 13 15 15 13 12 13 12 11 8 6 5 4 3 2 3 3 4 4 4 4 3 3 3 3 1 0
0 0 0 0 0 0 0 1 2 4 6 9 13 17 18 16 12 9 11 16 19 20 20 20 19 18 15 13 12 11 10 9 6 4 3 3 4 4 5 5 4 4 3 3 2 1 1 0 0
0 0 0 0 0 0 0 1 3 4 7 10 13 16 17 16 12 10 12 16 20 22 25 26 25 21 18 15 12 11 9 7 4 3 3 4 6 7 6 6 5 4 3 2 1 0 0 0 0
0 0 0 0 0 0 0 1 3 5 8 11 12 13 14 14 11 10 12 17 21 24 29 31 29 25 20 16 13 10 8 5 2 1 2 4 6 6 5 5 5 5 3 1 1 1 0 0 0
0 0 0 0 0 0 0 1 3 5 7 9 10 11 12 12 10 10 12 18 22 26 31 34 32 27 22 17 13 9 6 3 1 1 2 4 4 3 3 3 5 5 4 2 2 1 0 0 0
0 0 0 0 0 0 0 1 2 4 5 8 9 11 12 12 10 10 13 19 24 28 32 35 34 29 25 20 14 10 7 5 4 4 6 6 5 3 2 3 4 5 3 2 2 1 0 0 0
0 0 0 0 0 0 0 1 2 3 5 6 8 10 12 13 11 11 12 17 24 30 35 37 37 34 31 27 20 16 14 10 7 8 9 7 5 2 2 3 4 3 1 1 1 0 0 0 0
0 0 0 0 0 0 1 2 2 3 5 6 7 9 12 14 12 10 10 14 21 30 37 40 41 39 36 31 25 22 19 12 9 9 8 6 4 2 1 2 3 1 0 0 0 0 0 0 0

GEFSSGP_con_prob3kmehi_294.txt.gz
EHI
1 1 0 0 0 0 0 0 0 0 0 0 0 0 0 0 0 0 0 0 0 0 1 2 4 6 5 4 2 2 5 6 6 4 5 6 5 4 3 3 3 3 4 5 5 3 1 1 1
1 1 0 0 0 0 0 0 0 0 0 0 0 0 0 0 0 0 0 0 0 0 1 3 6 7 6 4 3 3 5 5 4 4 5 6 4 3 3 3 3 3 4 6 5 3 1 1 1
1 1 0 0 0 0 0 0 0 0 0 0 0 0 0 0 0 0 0 0 0 0 1 4 8 9 7 4 3 3 3 3 3 4 5 6 4 3 3 3 3 4 5 6 5 2 0 0 1
0 0 0 0 0 0 0 0 0 0 0 0 0 0 0 0 0 0 0 0 0 0 1 4 8 9 7 5 4 3 3 3 2 3 4 5 4 4 3 3 3 4 4 4 3 1 1 2 2
0 0 0 0 0 0 0 0 0 0 0 0 0 0 0 0 0 0 0 0 0 0 1 3 6 7 7 6 5 4 4 4 3 2 3 4 4 4 3 2 2 3 3 3 2 1 2 3 3
0 0 0 0 0 0 0 0 0 0 0 0 0 0 0 0 0 0 0 0 0 0 1 2 3 4 5 4 4 4 5 5 3 2 2 3 3 3 1 1 1 1 2 3 2 3 3 4 4
0 0 0 0 0 0 0 0 0 0 0 0 0 0 0 0 0 0 0 0 0 0 0 1 1 1 2 2 2 4 6 5 2 2 2 1 1 1 0 0 0 1 2 3 3 4 4 3 3
0 0 0 0 0 0 0 0 0 0 0 0 0 0 0 0 1 1 0 0 0 0 0 0 0 0 0 0 1 3 4 3 1 1 1 0 0 1 0 0 0 1 2 2 2 3 4 4 3
0 0 0 0 0 0 0 0 0 0 0 0 0 0 0 0 1 2 1 0 0 0 0 0 0 0 0 0 0 1 1 1 0 0 0 0 0 0 0 0 0 1 1 1 0 2 4 4 3
0 0 0 0 0 0 0 0 0 0 0 0 1 1 1 1 1 1 1 0 0 0 0 0 0 0 0 0 0 0 0 0 0 0 0 0 0 0 0 0 0 0 0 0 0 1 2 2 2
0 0 0 0 0 0 0 0 0 1 1 1 3 3 3 2 1 0 0 0 0 0 0 0 0 0 0 0 0 0 0 0 0 0 0 0 0 0 0 0 0 0 0 0 0 0 0 0 0
0 0 0 0 0 0 0 0 0 1 1 3 4 4 3 2 1 0 0 0 0 0 0 0 0 0 0 0 0 0 0 0 0 0 0 0 0 0 0 0 0 0 0 0 1 0 0 0 0
0 0 0 0 0 0 0 0 0 1 3 4 5 4 3 1 0 0 0 0 0 0 0 0 0 0 0 0 0 0 0 0 0 0 0 0 0 0 0 0 0 0 0 0 0 0 0 0 0
0 0 0 0 0 0 0 1 1 2 4 5 5 4 2 1 0 0 0 0 0 0 0 0 0 0 0 0 0 0 0 0 0 0 0 0 0 0 0 0 0 0 0 0 0 0 0 0 0
0 0 0 0 0 0 0 1 2 4 5 5 4 3 1 0 0 0 0 0 0 0 0 0 0 0 0 0 0 0 0 0 0 0 0 0 0 0 0 0 0 0 0 0 0 0 0 0 0
0 0 0 0 0 0 0 0 1 4 6 5 3 3 1 0 0 0 0 0 0 0 0 0 0 0 0 0 0 0 0 0 0 0 0 0 0 0 0 0 0 0 0 0 0 0 0 0 0
0 0 0 0 0 0 0 0 1 5 7 6 4 3 2 1 0 0 0 0 0 0 0 0 0 0 0 0 0 0 0 0 0 0 0 0 1 1 1 0 0 0 0 0 0 0 0 0 0
0 0 0 0 0 0 0 0 2 5 8 7 5 5 4 2 0 0 0 0 0 0 0 0 0 0 0 0 0 0 0 0 0 0 0 0 1 2 2 1 0 1 1 0 0 0 0 0 0
0 0 0 0 0 0 0 0 2 5 8 8 6 6 6 3 1 1 1 1 1 0 0 0 0 0 0 0 0 0 0 0 0 0 0 0 0 1 2 2 1 2 2 1 0 0 0 0 0
0 0 0 0 0 0 0 0 2 4 6 7 7 8 8 5 3 4 5 3 2 1 1 1 1 1 0 0 1 0 0 0 0 0 0 0 0 0 1 1 2 3 3 1 0 0 0 0 0
0 0 0 0 0 0 0 0 2 4 4 4 6 8 9 7 5 6 7 5 3 3 2 3 3 2 1 2 3 3 1 1 2 1 0 0 0 1 1 1 3 3 3 2 2 2 1 1 0
0 0 0 0 0 0 0 0 2 3 3 2 3 7 9 9 6 6 7 6 4 3 4 4 4 3 2 4 6 6 4 2 3 3 2 1 1 2 2 3 3 3 3 3 4 4 3 2 1
0 0 0 0 0 0 0 0 1 3 2 1 1 5 10 10 7 5 7 6 4 3 4 5 4 2 2 5 7 7 6 4 4 4 3 2 3 3 3 3 3 3 3 3 4 3 2 1 1
0 0 0 0 0 0 0 0 1 2 2 0 1 4 8 9 6 4 5 6 5 3 4 5 4 2 3 6 8 8 7 6 5 4 3 3 2 3 3 3 3 2 2 2 2 1 0 0 0
0 0 0 0 0 0 0 0 1 2 2 1 1 3 6 7 5 4 5 5 4 3 4 6 6 4 4 6 8 8 7 6 6 4 3 2 1 1 2 2 1 1 1 1 0 0 0 0 0
0 0 0 0 0 0 0 1 2 3 3 3 3 4 6 6 4 3 3 4 3 2 3 5 7 6 6 6 7 7 6 6 5 4 3 2 1 1 1 1 1 1 0 0 0 0 0 0 0
0 0 0 0 0 0 1 2 3 3 4 4 4 4 5 5 4 2 1 3 3 3 3 4 6 7 9 9 8 7 5 4 3 3 2 1 1 1 2 2 2 1 0 0 0 0 0 0 0
0 0 0 0 0 0 1 2 3 3 3 4 3 3 3 4 3 1 1 2 4 4 4 3 5 8 10 11 9 7 4 1 1 1 1 0 0 1 1 1 1 1 0 0 0 0 0 0 0
0 0 0 0 0 0 0 1 1 3 3 3 3 2 2 3 2 1 1 2 4 5 5 4 6 9 11 12 11 7 3 0 0 0 0 0 0 0 0 0 0 0 0 0 0 0 0 0 0
0 0 0 0 0 0 0 0 1 2 3 3 3 2 2 3 2 1 0 1 3 5 6 6 7 10 12 13 11 7 3 1 0 0 0 0 0 0 0 0 1 1 1 0 0 0 0 0 0

GEFSSGP_con_prob3kmehi_300.txt.gz
EHI
1 1 4 6 4 1 0 0 0 0 0 0 0 0 0 0 0 0 0 0 0 0 1 3 6 5 4 3 2 1 0 1 1 1 0 1 2 3 3 3 3 3 3 3 3 3 3 3 3
3 3 6 7 3 0 0 0 0 0 0 0 0 0 0 0 0 0 0 0 0 0 1 3 4 4 4 4 5 4 2 1 1 2 1 1 2 3 3 3 3 3 3 3 3 3 3 3 3
6 6 7 4 1 0 0 0 0 0 0 0 0 0 0 0 0 0 0 0 0 0 1 2 3 4 5 6 7 6 4 2 2 2 2 2 2 2 3 3 3 3 3 3 3 3 3 3 4
8 8 5 2 0 0 0 0 0 0 0 0 0 0 0 0 0 0 0 0 0 0 1 2 3 4 5 6 6 5 4 3 3 3 3 2 1 1 1 2 2 2 3 3 3 3 3 4 4
8 7 4 1 0 0 0 0 0 0 0 0 0 0 0 0 0 0 0 0 0 0 1 2 3 4 4 4 3 4 4 3 3 3 3 2 1 0 0 1 1 1 1 2 2 2 2 3 3
7 6 2 0 0 0 0 0 0 0 0 0 0 0 0 0 0 0 0 0 0 0 0 1 2 3 2 2 2 4 4 3 2 2 2 1 1 0 0 0 0 0 0 1 1 1 1 1 2
6 4 1 0 0 0 0 0 0 0 0 0 0 0 0 0 0 0 0 0 0 0 0 0 1 2 2 2 3 4 4 2 1 1 0 0 0 0 0 0 0 0 0 0 0 0 0 0 1
3 2 1 0 0 0 0 0 0 0 0 0 0 0 1 1 1 0 0 0 0 0 0 0 0 1 1 2 3 3 3 1 0 0 0 0 0 0 0 0 1 1 1 0 0 0 0 1 1
1 1 0 0 0 0 0 0 0 0 0 0 0 0 1 1 1 0 0 0 0 0 0 0 0 1 1 1 1 2 2 1 0 0 0 0 0 0 0 0 1 2 1 0 0 0 1 1 2
1 0 0 0 0 0 0 0 0 0 0 0 0 0 0 0 0 0 0 0 0 0 0 0 0 1 2 1 0 1 2 1 1 0 0 0 0 0 0 0 1 1 0 0 0 0 1 1 1
0 0 0 0 0 0 0 0 0 0 0 0 0 0 0 0 0 0 0 0 0 0 0 0 0 1 1 1 1 2 2 2 2 1 0 0 0 0 0 0 0 0 0 0 0 0 0 0 0
0 0 0 0 0 0 0 0 0 0 0 0 0 0 0 0 0 0 0 0 0 0 0 0 0 0 0 1 2 3 3 3 3 2 1 0 0 0 0 0 0 0 0 0 0 0 0 0 0
0 0 0 0 0 0 0 0 0 0 0 0 0 0 1 1 0 0 0 0 0 0 0 0 0 0 0 0 1 3 3 3 3 3 2 1 0 0 0 0 1 1 1 1 0 0 0 0 0
0 0 0 0 0 0 0 0 0 0 1 1 1 1 1 1 0 0 0 1 1 0 0 0 0 0 0 0 1 2 2 2 2 2 2 2 1 1 0 0 1 1 2 2 1 0 0 1 1
0 0 0 0 0 0 0 0 0 1 2 3 3 3 1 0 0 0 0 1 1 1 0 0 0 0 0 0 0 1 1 1 1 0 1 2 3 2 1 0 0 1 2 3 2 1 1 1 0
0 0 0 0 0 0 0 0 0 1 2 3 4 4 2 1 0 0 0 1 1 1 0 0 1 1 1 1 0 0 0 0 0 0 1 2 2 3 2 1 1 3 4 4 3 2 2 1 1
0 0 0 0 0 0 0 0 0 0 1 2 3 4 3 2 1 0 0 0 0 1 1 1 3 3 3 2 1 1 0 0 0 1 1 1 1 2 3 3 3 4 6 5 4 3 3 2 2
0 0 0 0 0 0 0 1 2 1 0 1 4 6 6 4 3 1 1 0 0 1 2 3 4 5 4 3 3 2 1 0 0 1 2 1 1 2 4 4 4 5 5 6 6 6 5 4 5
0 0 0 0 0 0 0 1 2 3 2 1 4 7 8 6 5 4 3 2 2 3 4 5 5 6 4 3 3 3 1 1 2 2 2 2 3 4 5 6 5 5 5 5 6 8 7 6 6
0 0 0 0 0 0 0 0 2 4 3 1 3 6 8 7 6 6 6 6 6 6 6 6 6 6 5 4 4 4 3 3 2 3 3 3 5 6 6 6 5 4 4 4 5 7 7 6 5
0 0 0 0 0 0 0 0 2 3 3 2 3 5 7 8 8 9 10 9 8 8 7 6 7 7 8 8 7 7 7 5 4 4 4 4 5 6 6 5 4 4 4 5 4 5 5 4 3
0 0 0 0 0 0 0 0 1 2 3 3 4 5 7 9 10 10 11 11 10 9 8 7 7 9 13 15 14 12 10 8 6 6 6 5 4 4 4 4 4 4 5 5 4 4 4 3 3
0 0 0 0 0 0 0 0 0 2 3 4 5 6 7 10 10 9 9 11 12 10 9 8 9 13 17 19 19 17 14 11 9 9 9 7 5 4 4 4 4 5 5 4 4 4 4 4 3
0 0 0 0 0 0 0 0 0 1 3 6 7 7 7 8 8 8 9 10 11 11 10 9 12 16 19 20 21 20 17 14 12 12 11 8 6 5 4 4 5 6 6 5 4 4 4 3 2
0 0 0 0 0 0 0 0 1 2 5 6 8 8 7 8 8 9 9 8 10 11 11 12 16 18 20 21 21 21 19 16 14 13 11 9 7 5 4 4 5 6 6 5 5 4 3 1 1
0 0 0 0 0 0 0 1 2 5 7 7 7 7 9 9 10 10 9 9 9 10 11 13 17 19 20 21 21 20 18 14 13 12 10 9 7 6 5 4 4 5 5 5 5 4 3 2 1
0 0 0 0 0 0 0 1 3 7 9 8 6 7 10 11 12 11 10 9 8 8 9 10 13 17 17 17 17 16 14 12 12 12 10 9 8 6 5 5 5 5 4 5 5 6 5 4 2
0 0 0 0 0 0 0 0 3 8 10 9 6 7 10 11 12 11 10 8 7 7 6 6 8 11 11 11 12 11 11 12 12 11 10 9 8 6 5 6 6 6 6 6 6 6 6 5 4
0 0 0 0 0 0 0 0 2 7 10 9 6 5 7 9 11 10 9 8 7 7 6 4 4 6 8 9 9 9 10 12 11 10 10 8 6 5 5 6 7 8 8 6 5 5 5 6 6
0 0 0 0 0 0 0 0 2 5 8 7 5 5 5 7 9 9 9 9 7 7 6 3 3 4 7 9 8 8 10 11 10 9 9 7 4 4 5 6 8 9 7 5 4 4 5 6 6

GEFSSGP_con_prob3kmehi_306.txt.gz
EHI
2 7 16 24 22 11 2 0 0 0 0 0 0 0 0 0 0 0 0 0 1 2 4 5 8 8 7 6 3 1 2 2 2 1 0 0 0 0 0 0 0 1 2 3 3 2 2 2 3
4 11 22 26 18 6 1 0 0 0 0 0 0 0 0 0 0 0 0 0 1 2 4 6 9 10 8 7 4 2 2 3 3 2 1 0 0 0 0 0 0 2 3 3 3 2 2 3 3
10 18 28 25 11 2 0 0 0 0 0 0 0 0 0 0 0 0 0 0 0 1 4 7 10 10 9 8 6 4 4 3 3 3 1 0 0 0 0 0 0 1 2 4 3 3 4 4 3
19 24 26 17 5 0 0 0 0 0 0 0 0 0 0 0 0 0 0 0 0 2 5 8 10 10 10 9 8 8 6 5 4 4 2 1 0 0 0 0 0 0 1 3 4 4 4 3 3
23 24 20 8 1 0 0 0 0 0 0 0 0 0 0 0 0 0 0 0 0 2 5 8 10 11 11 10 9 9 9 7 6 5 4 3 1 0 0 0 0 0 0 2 3 3 2 2 2
21 20 13 4 0 0 0 0 0 0 0 0 0 0 0 0 0 0 0 0 0 1 3 7 10 12 14 12 9 9 10 9 8 7 5 4 2 1 0 0 1 0 0 0 1 1 0 1 2
16 13 7 2 0 0 0 0 0 0 0 0 0 0 0 0 0 0 0 0 0 1 2 4 7 11 13 12 11 10 10 9 9 8 6 4 2 1 0 0 0 0 0 0 0 1 0 1 2
8 6 3 0 0 0 0 0 0 0 0 0 0 0 0 0 0 0 0 0 0 1 2 2 3 6 8 9 10 10 9 8 9 9 8 6 3 2 0 0 1 1 1 1 1 3 2 3 4
4 3 1 0 0 0 0 0 0 0 0 0 0 1 1 1 0 0 0 0 0 1 2 1 0 1 2 5 8 9 9 8 8 9 9 8 5 2 0 1 3 3 2 2 3 4 5 6 5
2 2 1 0 0 0 0 0 0 0 1 1 1 3 2 1 0 0 0 0 0 1 1 0 0 1 1 3 6 8 8 8 9 9 10 9 6 2 1 3 4 5 6 5 4 5 6 5 5
1 1 0 0 0 0 0 0 0 0 1 2 3 3 3 1 0 0 0 0 0 0 0 0 1 2 3 4 6 6 6 7 8 9 9 8 6 4 4 5 6 7 8 7 7 7 5 3 3
0 0 0 0 0 0 0 0 0 0 2 3 3 2 2 1 0 0 1 1 1 0 0 2 4 6 8 10 9 6 4 4 6 8 8 7 8 8 8 10 12 11 9 9 9 8 5 3 3
0 0 0 0 0 0 0 0 0 0 2 4 3 1 1 0 0 0 1 2 2 1 0 3 7 10 12 16 14 8 5 4 5 7 7 8 10 13 13 13 15 14 11 10 9 7 5 3 4
0 0 0 0 0 0 0 0 0 0 2 4 3 2 1 1 0 1 1 3 3 2 2 4 8 13 15 16 15 11 7 6 7 8 10 10 12 16 15 14 14 13 12 10 9 8 6 5 5
0 0 0 0 0 0 0 0 0 1 2 4 5 5 3 2 1 2 3 4 5 6 6 6 9 14 15 13 13 11 8 7 8 11 14 14 14 16 17 14 12 13 13 12 11 10 7 6 6
0 0 0 0 0 0 0 0 0 1 3 4 6 6 5 3 2 2 5 5 6 9 10 8 8 12 14 13 12 10 8 7 8 12 16 17 16 17 17 14 12 13 15 15 13 11 9 7 7
0 0 0 0 0 0 0 0 0 1 2 5 8 7 6 5 4 5 6 7 8 11 13 11 9 10 13 14 13 11 9 8 8 12 17 19 18 16 16 14 13 13 14 15 14 13 11 10 9
0 0 0 0 0 0 0 0 0 0 1 4 7 8 7 7 7 7 9 10 11 15 18 16 14 14 15 16 15 12 10 9 10 13 18 19 16 15 15 15 16 15 14 15 15 14 14 13 11
0 0 0 0 0 0 0 1 1 1 1 3 6 9 10 9 9 10 12 13 14 19 25 25 22 21 20 18 16 14 11 10 11 13 17 17 15 15 16 16 18 17 15 15 17 17 15 12 10
0 0 0 0 0 0 0 0 1 2 2 3 5 9 11 12 13 14 15 15 17 23 29 31 29 27 22 16 13 14 13 11 11 12 15 17 16 15 16 17 19 19 16 16 18 18 15 11 9
0 0 0 0 0 0 0 1 2 3 4 5 6 8 11 14 16 18 19 18 17 22 28 31 32 29 21 15 13 14 15 13 11 13 18 19 17 15 17 20 21 20 17 15 14 15 15 12 10
0 0 0 0 0 0 0 1 4 4 5 7 8 10 13 16 17 20 21 20 18 19 24 30 34 31 24 19 17 17 17 14 13 15 20 21 20 18 19 22 24 22 17 11 9 10 12 12 11
0 0 0 0 0 0 0 1 3 4 6 10 12 14 17 20 21 21 22 23 20 18 22 31 38 36 31 24 21 21 20 17 15 17 20 21 22 21 21 25 27 23 16 10 8 9 11 13 12
0 0 0 0 0 0 0 1 2 4 7 11 14 16 21 23 22 22 24 25 22 19 22 32 41 42 37 30 27 25 23 21 20 19 20 21 23 24 24 26 27 23 18 14 12 13 15 15 14
0 0 0 0 0 0 0 1 3 5 8 11 13 17 21 24 22 24 27 26 23 22 27 36 43 44 41 37 33 28 24 24 24 22 22 22 23 26 27 25 24 22 20 17 16 17 17 16 14
0 0 0 0 0 0 0 2 4 6 9 11 13 16 20 24 23 23 25 26 24 26 32 39 44 45 42 40 36 29 25 25 25 25 24 22 20 23 26 24 21 20 19 18 18 18 16 15 14
0 0 0 0 0 0 1 3 5 7 10 12 13 14 18 22 22 20 21 23 23 27 33 40 45 45 42 40 35 28 26 26 26 27 27 21 18 19 22 22 19 17 17 18 19 18 16 15 15
0 0 0 0 0 0 1 4 6 9 12 13 12 13 16 19 18 18 19 20 21 25 32 40 45 45 42 38 34 29 28 28 28 29 28 24 19 19 21 21 19 16 16 17 18 19 19 17 16
0 0 0 0 0 0 1 4 7 10 14 15 14 13 16 17 16 17 21 22 22 25 31 38 43 44 42 39 37 35 33 31 29 29 29 27 25 25 25 24 21 18 16 16 17 19 20 18 16
0 0 0 0 0 0 1 4 8 12 15 17 15 14 16 16 15 17 22 24 25 26 29 35 40 43 42 41 41 41 37 33 30 30 30 30 30 29 29 27 24 19 16 16 15 17 20 18 16

GEFSSGP_con_prob3kmehi_312.txt.gz
EHI
4 2 1 1 1 0 0 0 0 0 0 0 0 0 0 0 0 0 0 1 3 3 3 6 10 10 10 12 11 8 4 2 2 2 2 2 1 1 3 5 7 8 6 3 2 2 1 2 3
1 1 1 1 0 0 0 0 0 0 0 0 0 0 0 0 0 0 1 2 3 3 3 5 9 10 10 11 10 7 3 1 1 1 1 1 1 1 2 4 6 7 5 2 1 1 1 2 3
0 1 2 2 1 0 0 0 0 0 0 0 0 0 0 0 0 0 1 2 3 3 1 4 9 11 11 10 9 6 3 1 0 0 0 0 0 1 1 1 3 5 5 3 1 1 1 2 3
1 2 4 4 1 0 0 0 0 0 0 0 0 0 0 0 0 0 1 2 3 2 1 3 7 10 9 9 8 7 5 3 1 0 0 0 0 0 0 0 1 3 5 5 3 1 1 3 4
3 3 4 4 1 0 0 0 0 0 0 0 0 0 0 0 0 0 0 1 3 3 1 2 4 6 6 6 7 7 6 4 2 1 0 0 0 0 0 0 1 2 5 6 3 1 1 3 4
5 4 3 2 0 0 0 0 0 0 0 0 0 0 0 0 0 0 0 1 2 3 2 2 3 4 5 6 7 7 8 6 4 2 1 0 0 0 0 0 0 1 2 3 2 1 1 2 3
6 5 3 1 0 0 0 0 0 0 0 0 0 0 0 0 0 0 0 1 2 3 3 3 4 5 6 7 7 7 8 7 5 4 2 1 0 0 0 0 0 0 0 1 1 0 0 1 1
6 4 3 1 0 0 0 0 0 0 0 0 0 0 0 0 0 0 0 0 1 2 3 4 5 5 6 6 7 6 7 6 5 4 3 2 1 0 0 0 0 0 1 1 1 0 0 0 1
4 4 3 1 0 0 0 0 0 0 0 0 0 0 0 0 0 0 0 0 0 1 1 3 3 3 3 4 4 5 5 4 3 3 3 3 2 0 0 0 2 2 2 3 3 2 1 1 1
3 3 2 1 0 0 0 0 0 0 0 0 0 0 0 0 0 0 0 0 0 0 0 1 1 1 1 1 2 3 4 3 3 2 2 2 1 0 0 1 3 3 2 2 3 3 2 1 2
2 2 2 1 0 0 0 0 0 1 0 0 0 0 1 0 0 0 0 0 0 0 0 0 1 1 0 0 1 2 3 3 3 2 1 0 0 0 0 0 1 1 1 1 1 2 2 2 3
2 2 1 0 0 0 0 0 1 1 1 1 0 0 1 0 0 0 0 1 1 1 0 0 1 1 0 0 0 1 1 2 2 2 1 0 0 0 0 0 0 0 0 0 0 1 1 2 2
1 1 1 0 0 0 0 1 2 2 2 2 1 0 1 0 0 1 1 2 3 3 1 0 0 0 0 0 0 0 0 1 1 1 1 1 0 0 0 0 0 0 0 0 0 0 0 1 1
0 0 0 0 0 0 1 3 4 4 3 2 1 0 0 0 1 2 3 4 4 4 3 1 0 0 1 1 0 0 0 0 0 0 0 0 0 0 0 0 0 0 0 0 0 0 0 0 0
0 0 0 0 0 0 1 4 6 5 4 3 1 0 0 0 2 4 4 3 3 3 3 2 1 0 1 1 0 0 0 0 0 0 0 0 0 0 1 1 0 0 0 0 0 0 0 0 0
0 0 0 0 0 0 0 2 4 6 5 4 2 1 0 1 3 5 3 1 1 2 3 3 1 1 1 1 0 0 0 0 0 0 0 0 0 0 1 2 1 0 0 1 1 1 0 0 0
0 0 0 0 0 0 0 1 4 6 6 5 4 2 1 2 3 4 2 0 0 1 2 3 3 3 2 0 0 0 0 1 1 1 1 2 2 1 1 2 1 0 1 2 2 2 1 0 0
0 0 0 0 0 0 0 1 5 7 7 7 6 5 3 3 3 2 2 2 1 0 1 2 4 5 4 1 0 0 1 2 2 2 2 3 3 3 2 3 2 1 1 2 3 2 1 0 0
0 0 0 0 0 0 0 1 4 7 8 8 8 6 4 3 2 3 4 5 2 0 0 1 4 5 4 2 1 0 1 2 2 2 2 3 4 4 5 5 4 3 3 3 2 1 1 0 0
0 0 0 0 0 0 0 0 2 5 7 9 9 8 5 3 1 2 5 7 5 3 2 3 3 4 3 2 1 0 1 1 2 3 3 4 4 6 7 6 6 6 5 4 2 1 1 0 0
0 0 0 0 0 0 1 0 0 2 5 9 10 9 7 4 2 2 5 8 10 8 6 5 4 3 3 3 2 2 3 3 3 3 4 4 6 8 8 7 6 5 5 4 2 1 1 1 1
0 0 0 0 0 0 0 0 0 1 4 7 9 10 8 6 4 5 7 9 12 13 11 8 6 5 4 4 4 5 5 5 5 4 4 5 6 7 7 6 4 3 3 2 1 1 1 1 0
0 0 0 0 0 0 0 0 0 2 3 4 6 8 9 9 8 7 9 10 12 14 13 11 9 8 7 7 8 7 6 6 6 6 6 6 5 4 4 4 4 2 1 1 1 2 2 1 1
0 0 0 0 0 0 0 0 0 2 3 3 3 4 8 12 12 10 10 11 12 14 15 14 13 12 11 12 12 10 8 7 7 7 8 6 3 2 2 3 4 3 1 1 2 3 3 3 2
0 0 0 0 0 0 0 0 1 2 3 2 1 3 7 12 14 13 12 13 14 16 18 18 17 15 14 14 13 12 9 7 6 7 7 5 2 2 2 3 3 2 2 3 4 4 4 3 3
0 0 0 0 0 0 1 1 1 1 1 1 1 4 8 13 14 14 15 16 18 20 22 21 19 17 15 14 12 11 8 6 5 6 5 4 3 2 2 3 3 3 3 3 4 5 4 3 3
0 0 0 0 0 0 1 2 2 1 0 0 2 5 9 13 13 14 16 19 21 24 25 24 21 19 17 15 12 10 7 6 5 4 4 5 4 2 2 4 5 4 3 3 4 4 4 4 4
0 0 0 0 0 0 0 1 1 2 1 1 2 5 9 11 12 13 16 20 25 29 28 25 23 22 20 17 15 11 9 8 6 5 5 7 6 3 2 4 6 5 4 4 5 4 4 5 5
0 0 0 0 0 0 0 0 1 2 3 3 4 5 8 10 10 11 16 22 30 34 32 28 25 23 20 17 16 15 15 13 11 9 10 11 8 5 4 5 6 5 4 5 6 6 6 5 5
0 0 0 0 0 0 0 0 1 3 4 5 5 5 6 8 9 11 16 24 32 37 35 31 28 24 20 17 16 17 19 18 15 13 14 14 10 7 6 6 6 6 5 5 6 6 7 7 6

GEFSSGP_con_prob3kmehi_318.txt.gz
EHI
4 2 0 0 0 0 0 0 0 0 0 0 0 0 0 0 0 0 0 0 0 0 1 3 4 7 9 8 5 4 3 4 4 4 4 5 5 4 3 3 2 1 1 0 0 0 1 1 1
2 1 0 0 0 0 0 0 0 0 0 0 0 0 0 0 0 0 0 0 0 1 2 3 4 7 9 8 5 4 3 4 4 4 4 4 4 4 5 5 5 3 2 1 1 0 0 0 0
0 0 0 0 0 0 0 0 0 0 0 0 0 0 0 0 0 0 0 0 0 2 3 4 5 6 7 6 5 3 4 5 6 5 5 4 3 4 5 7 7 5 4 3 2 1 0 0 0
0 0 0 0 0 0 0 0 0 0 0 0 0 0 0 0 0 0 0 0 0 1 3 5 6 6 7 6 5 3 4 5 6 5 4 3 3 3 5 7 8 6 4 3 3 2 2 1 0
0 0 0 0 0 0 0 0 0 0 0 0 0 0 0 0 0 0 0 0 0 1 3 6 7 6 7 7 6 4 3 4 4 3 3 3 3 3 4 6 6 5 4 3 3 3 2 2 1
0 0 0 0 0 0 0 0 0 0 0 0 0 0 0 0 0 0 0 0 0 1 3 5 6 6 6 7 7 5 3 2 1 1 2 2 2 2 3 4 4 4 3 3 3 2 1 1 2
0 0 0 0 0 0 0 0 0 0 0 0 0 0 0 0 0 0 0 0 0 0 1 3 4 4 4 5 5 5 3 1 0 0 1 1 1 1 1 2 3 3 3 2 1 1 0 1 3
0 0 0 0 0 0 0 0 0 0 0 0 0 0 0 0 0 0 0 0 0 0 0 1 2 3 4 4 4 4 2 1 1 0 0 0 0 0 0 1 2 2 2 1 0 0 0 1 3
0 0 0 0 0 0 0 0 0 0 0 0 0 0 0 0 0 0 0 0 0 0 0 0 1 2 2 2 2 2 1 1 1 0 0 0 0 0 0 0 0 1 0 0 0 0 1 2 2
1 1 0 0 0 0 0 0 0 0 0 0 0 0 0 0 0 0 0 0 0 0 0 0 0 1 1 1 1 1 1 1 0 0 0 1 0 0 0 0 0 0 0 0 0 0 1 2 2
2 1 0 0 0 0 0 0 0 0 0 0 0 0 0 0 0 0 0 0 0 0 0 0 0 0 0 0 0 0 0 0 0 0 0 0 0 0 0 0 1 0 0 0 0 0 1 1 2
2 1 0 0 0 0 0 0 0 0 0 0 0 0 0 0 0 0 0 0 0 0 0 0 0 0 0 0 0 0 0 0 0 0 0 0 0 0 0 0 0 0 0 0 0 1 2 2 2
1 0 0 0 0 0 0 0 0 0 0 1 2 1 0 0 0 0 0 0 0 0 0 0 0 0 0 0 0 0 0 0 0 0 0 0 0 0 0 0 0 0 0 0 0 1 2 3 3
0 0 0 0 0 0 0 0 0 0 1 2 2 1 0 0 0 0 0 1 1 0 0 0 0 0 0 0 0 0 0 0 0 0 0 0 0 0 0 0 0 0 0 0 0 0 1 2 2
0 0 0 0 0 0 0 0 0 0 1 1 1 1 0 0 0 0 0 1 1 0 0 0 0 0 0 0 0 0 0 0 0 0 0 0 0 0 0 0 0 0 0 0 0 0 0 1 1
0 0 0 0 0 0 0 0 1 1 1 1 0 0 0 0 0 0 0 1 1 0 0 0 0 0 0 0 0 0 0 0 0 0 0 0 0 0 0 0 0 0 0 0 0 0 0 0 0
0 0 0 0 0 0 0 0 1 2 2 1 0 0 0 0 0 0 0 0 0 0 0 0 0 0 0 0 0 0 0 0 0 0 0 0 0 0 0 0 0 0 0 0 0 0 0 0 0
0 0 0 0 0 0 0 0 1 3 2 1 0 0 0 1 0 0 0 0 0 0 0 0 0 0 0 0 0 0 0 0 0 0 0 1 1 0 0 0 0 0 0 0 0 0 0 0 0
0 0 0 0 0 0 0 1 2 3 3 1 0 0 0 0 0 0 1 1 1 0 0 0 0 0 0 0 0 0 0 0 1 1 1 2 2 1 1 1 1 1 1 1 1 1 1 0 0
0 0 0 0 0 0 0 1 2 3 3 2 1 1 0 0 0 0 1 1 1 0 0 0 0 0 0 0 0 1 1 1 2 3 3 3 3 3 3 3 3 3 3 3 2 2 2 1 0
0 0 0 0 0 0 0 0 1 2 2 3 2 1 0 0 0 0 0 0 0 0 0 0 0 0 0 1 1 2 2 3 3 4 4 4 3 4 4 4 4 4 4 3 2 2 2 1 0
0 0 0 0 0 0 0 0 0 1 1 2 3 2 0 0 0 0 0 0 0 0 0 0 0 1 1 2 3 3 3 3 3 3 4 3 3 3 4 3 3 3 2 1 1 1 1 1 1
0 0 0 0 0 0 0 0 0 0 0 1 2 1 0 0 0 0 0 0 0 0 1 1 1 2 3 3 3 3 3 3 4 3 3 3 2 1 1 1 1 1 0 0 0 0 1 2 2
0 0 0 0 0 0 0 0 0 0 0 0 1 1 0 0 0 0 0 1 1 1 3 3 3 3 3 4 4 4 4 4 4 4 3 3 2 0 0 0 0 0 0 0 0 0 1 2 3
0 0 0 0 0 0 0 0 0 0 0 0 0 0 0 0 0 0 1 2 3 4 5 6 5 4 4 4 4 5 5 4 5 4 3 3 2 1 0 0 0 1 1 1 0 0 1 2 2
0 0 0 0 0 0 0 0 0 0 0 0 0 0 0 0 0 0 1 3 4 6 7 7 6 4 3 4 4 5 5 4 4 4 4 3 3 2 1 0 0 1 1 1 0 0 0 1 1
0 0 0 0 0 0 0 0 0 0 0 0 0 1 1 1 0 1 2 3 5 7 8 8 6 4 3 3 4 4 4 3 3 4 3 3 3 3 2 1 0 0 1 0 0 0 0 0 0
0 0 0 0 0 0 0 0 0 0 0 0 1 2 3 2 1 2 3 3 5 8 9 8 7 4 3 3 3 3 3 4 3 3 3 3 3 3 2 1 0 1 1 1 0 0 0 0 0
0 0 0 0 0 0 0 0 0 0 0 0 1 3 3 4 4 4 4 4 6 10 9 8 6 5 4 4 3 3 4 4 3 3 3 3 3 3 3 2 0 1 2 2 1 0 0 0 0
0 0 0 0 0 0 0 0 0 0 0 1 2 3 4 4 5 6 5 5 8 11 10 7 6 5 5 5 4 3 4 3 2 3 3 3 3 4 4 3 1 0 1 2 2 1 0 0 0

GEFSSGP_con_prob3kmehi_324.txt.gz
EHI
5 4 4 6 6 2 0 0 0 0 0 0 0 0 0 0 0 0 0 0 0 1 2 4 6 7 6 6 6 3 1 0 1 3 3 2 1 1 1 1 1 2 2 1 2 2 1 2 3
4 4 5 6 3 1 0 0 0 0 0 0 0 0 0 0 0 0 0 0 0 1 2 4 6 7 6 6 6 4 1 0 2 3 3 3 2 2 3 2 2 1 1 0 1 1 1 1 1
3 5 6 4 1 0 0 0 0 0 0 0 0 0 0 0 0 0 0 0 0 0 1 4 6 6 6 6 6 5 3 1 2 3 3 2 2 3 4 4 3 2 1 1 0 0 0 0 0
3 6 5 2 0 0 0 0 0 0 0 0 0 0 0 0 0 0 0 0 0 0 1 3 5 5 5 5 6 6 4 1 1 2 1 1 1 1 3 5 4 3 3 2 1 0 0 0 0
3 3 2 0 0 0 0 0 0 0 0 0 0 0 0 0 0 0 0 0 0 0 1 3 5 5 4 4 5 5 3 1 1 1 0 0 0 1 2 4 4 3 3 3 2 1 0 0 1
2 1 0 0 0 0 0 0 0 0 0 0 0 0 0 0 0 0 0 0 0 0 1 3 5 6 5 5 5 4 3 2 2 1 0 0 0 0 1 2 3 3 3 3 3 1 0 1 2
1 0 0 0 0 0 0 0 0 0 0 0 0 0 0 0 0 0 0 0 0 0 0 1 3 5 6 5 5 4 3 3 3 2 1 1 0 0 1 2 2 2 2 2 2 2 1 2 4
0 0 0 0 0 0 0 0 0 0 0 0 0 0 0 0 0 0 0 0 0 0 0 0 1 3 4 4 4 3 3 3 3 2 2 1 1 1 1 2 1 1 1 1 1 2 2 2 4
0 0 0 0 0 0 0 0 0 0 0 0 0 0 0 0 0 0 0 0 0 0 0 0 0 1 1 1 2 3 3 3 3 1 1 1 1 1 1 1 1 0 0 0 0 1 2 3 3
0 0 0 0 0 0 0 0 0 0 0 0 0 0 0 0 0 0 0 0 0 0 0 0 0 0 0 0 1 3 3 3 3 1 1 2 2 1 0 0 0 0 0 0 0 1 2 3 4
0 0 0 0 0 0 0 0 0 0 0 0 0 0 0 0 0 0 0 1 1 1 1 0 0 0 0 0 0 1 2 3 3 2 2 3 3 2 1 1 0 0 0 0 1 1 2 3 4
0 0 0 0 0 0 0 0 0 0 0 0 0 0 0 1 1 1 1 2 2 2 2 1 1 1 1 1 1 0 1 2 2 2 2 2 3 3 3 2 1 1 1 1 2 3 3 3 4
0 0 0 0 0 0 0 0 0 0 0 0 1 1 1 2 2 2 3 3 3 2 2 2 2 2 2 2 1 0 0 0 1 1 1 1 2 3 3 3 2 1 1 2 3 4 4 4 4
0 0 0 0 0 0 0 0 0 0 0 1 2 2 3 3 3 2 2 2 1 1 1 2 1 1 1 1 1 0 0 0 0 0 0 0 1 2 2 2 2 1 0 1 1 3 4 4 5
0 0 0 0 0 0 0 0 0 0 0 1 3 3 3 2 1 1 1 1 0 1 2 2 2 1 0 0 0 0 1 1 1 1 1 0 0 1 1 1 1 0 0 0 1 3 3 4 4
0 0 0 0 0 0 0 0 0 0 1 2 3 3 2 1 0 0 0 0 1 2 3 3 2 2 1 0 0 0 0 1 2 2 2 1 0 0 0 0 0 0 0 0 2 3 3 3 4
0 0 0 0 0 0 0 0 0 0 1 3 3 3 1 0 0 0 0 0 2 4 4 3 3 2 1 0 0 0 0 1 2 3 2 1 0 0 0 0 0 0 0 0 1 2 3 2 2
0 0 0 0 0 0 0 0 0 1 2 3 3 3 1 0 0 0 0 1 4 5 4 3 3 2 1 0 0 0 1 2 2 2 2 1 0 0 0 0 1 1 0 0 0 1 2 1 0
0 0 0 0 0 1 1 1 0 1 3 3 3 3 2 0 0 0 0 2 4 4 3 3 3 3 2 1 1 1 2 2 2 2 1 0 0 0 0 1 2 2 2 1 1 1 1 0 0
0 0 0 0 0 1 1 1 1 2 3 3 3 3 1 0 1 1 2 3 4 4 3 3 4 5 5 5 5 4 4 2 2 2 1 0 0 0 0 1 2 4 4 3 2 2 1 0 0
0 0 0 0 0 0 0 1 2 4 4 4 3 2 1 0 1 3 3 4 4 4 3 3 4 7 9 10 9 7 5 3 3 2 1 0 1 1 1 1 2 3 3 2 2 2 1 1 0
0 0 0 0 0 0 0 0 2 5 6 5 4 3 1 0 2 3 4 4 4 4 3 4 5 8 12 14 12 9 6 4 4 3 1 1 2 3 2 3 3 2 1 1 2 2 3 3 3
0 0 0 0 0 0 0 0 1 4 7 7 6 4 1 1 2 3 3 3 4 3 3 4 6 10 13 15 14 10 7 5 4 4 3 3 3 4 5 5 4 2 1 2 3 4 5 6 6
0 0 0 0 0 0 0 0 1 3 5 7 7 5 2 2 3 3 3 3 3 4 4 5 8 12 14 15 14 11 9 6 4 4 4 4 4 4 5 6 5 3 1 2 5 6 8 8 7
0 0 0 0 0 0 0 0 1 3 4 5 6 6 4 3 3 4 4 4 4 5 6 7 10 14 15 13 12 11 10 7 4 4 5 4 4 3 4 6 6 4 3 4 7 10 11 11 9
0 0 0 0 0 0 0 0 1 3 4 4 5 5 4 4 4 5 5 5 4 5 7 10 13 15 15 12 10 10 10 7 4 3 4 4 4 3 4 6 7 6 5 5 8 10 11 11 12
0 0 0 0 0 0 0 1 2 4 5 5 4 4 3 4 5 6 6 5 4 5 7 12 15 16 14 12 9 8 8 7 5 3 4 4 5 5 5 5 6 6 5 5 7 9 10 11 11
0 0 0 0 0 0 0 0 2 4 6 6 5 4 3 3 5 7 7 6 4 4 8 12 15 16 14 11 8 6 7 8 6 5 6 6 7 7 6 4 4 5 5 5 6 8 10 11 12
0 0 0 0 0 0 0 0 1 4 6 7 6 4 3 4 6 8 8 7 5 4 7 12 15 15 13 10 9 8 8 8 7 8 8 8 7 8 6 4 4 5 6 6 6 8 9 11 11
0 0 0 0 0 0 0 0 1 3 6 7 6 4 3 5 7 8 9 8 6 4 6 12 15 14 11 10 9 10 9 8 8 9 9 8 7 8 7 5 5 6 7 7 7 7 7 9 10

GEFSSGP_con_prob3kmehi_330.txt.gz
EHI
3 9 19 27 24 11 2 0 0 0 0 0 0 0 0 0 0 0 1 3 3 3 4 6 7 6 6 5 4 2 1 0 0 0 0 0 0 0 0 0 0 1 1 1 1 1 0 1 1
3 10 22 25 18 6 1 0 0 0 0 0 0 0 0 0 0 0 1 2 2 3 4 5 7 7 6 5 4 2 1 0 0 0 0 0 0 0 0 0 0 0 0 1 1 1 0 0 1
7 15 23 19 8 2 0 0 0 0 0 0 0 0 0 0 0 0 1 1 1 2 4 6 8 7 6 5 3 2 0 0 0 0 0 0 0 0 0 0 0 0 0 0 1 1 0 0 0
17 22 21 11 2 0 0 0 0 0 0 0 0 0 0 0 0 1 2 1 1 1 4 7 9 8 6 4 4 2 1 1 0 0 0 0 0 0 1 1 0 0 0 0 0 0 0 0 0
21 20 12 4 0 0 0 0 0 0 0 0 0 0 0 0 0 1 3 2 0 1 4 8 10 9 7 6 5 4 3 3 1 1 1 1 1 1 2 2 1 0 0 0 0 0 0 0 0
16 11 4 1 0 0 0 0 0 0 0 0 0 0 0 0 1 2 3 2 0 2 6 9 11 11 10 9 8 6 6 5 3 2 2 2 2 3 3 2 1 0 0 1 1 1 0 0 0
9 5 1 0 0 0 0 0 0 0 0 0 0 0 0 0 2 3 4 2 1 3 6 9 9 10 11 12 10 8 7 5 4 4 4 4 5 5 5 4 2 1 1 1 1 1 1 1 1
3 2 0 0 0 0 0 0 0 0 0 0 0 1 1 0 1 3 3 3 2 3 5 6 6 7 10 11 10 9 7 6 6 5 5 6 7 7 8 7 5 3 2 2 3 3 2 2 1
1 0 0 0 0 0 0 0 0 0 0 0 1 2 2 1 1 2 2 2 3 3 4 4 4 5 7 9 9 8 6 6 7 7 8 9 8 7 7 8 8 7 6 6 8 8 6 5 4
0 0 0 0 0 0 0 0 0 0 0 0 1 3 2 1 0 1 1 2 3 4 3 3 3 4 5 7 9 8 7 7 8 8 10 10 9 7 7 8 11 12 10 9 12 12 10 7 6
0 0 0 0 0 0 0 0 0 0 0 1 2 3 2 1 0 0 1 3 4 4 3 3 4 4 4 6 9 10 10 9 8 7 8 9 10 10 9 10 13 14 12 10 11 11 9 7 6
0 0 0 0 0 0 0 0 0 0 0 1 3 4 2 1 1 1 3 5 5 4 3 4 6 6 5 5 8 9 9 8 6 6 6 7 10 11 11 12 12 11 9 9 10 9 8 6 5
0 0 0 0 0 0 0 0 0 0 0 1 3 4 3 1 2 3 4 5 5 3 2 4 8 9 7 7 8 8 8 7 6 7 8 8 8 8 10 12 11 8 7 9 10 10 8 6 5
0 0 0 0 0 0 0 0 0 0 0 1 3 5 3 2 3 3 3 4 3 1 1 4 8 10 10 9 9 9 9 10 9 10 11 9 7 7 8 10 9 7 8 9 9 8 7 5 3
0 0 0 0 0 0 0 0 0 0 0 1 4 5 4 3 3 2 2 3 3 3 4 4 6 8 9 10 9 7 8 10 10 12 11 9 8 8 9 9 7 7 8 9 8 7 5 3 1
0 0 0 0 0 0 0 0 0 0 0 2 4 5 4 4 2 1 2 3 5 8 10 8 7 7 7 8 8 7 7 8 10 11 12 9 8 10 12 11 9 8 8 8 8 7 5 2 1
0 0 0 0 0 1 1 0 0 0 1 3 5 5 5 4 3 2 3 4 8 13 15 13 12 11 10 10 10 9 8 8 9 12 13 10 9 9 11 12 10 7 7 7 8 9 9 5 3
0 0 0 0 1 2 1 1 1 1 2 4 7 7 7 6 4 4 4 6 11 16 17 17 17 17 17 16 13 11 9 8 9 11 13 11 8 7 8 9 9 6 6 8 9 9 10 9 6
0 0 0 0 1 2 2 1 2 1 2 5 7 9 10 9 8 8 7 7 12 17 20 19 19 20 21 18 14 10 8 7 7 10 12 10 6 5 6 7 8 7 8 9 9 9 9 8 7
0 0 0 0 1 2 1 1 2 2 2 4 8 11 12 12 12 13 10 10 14 19 21 21 21 22 21 17 13 10 8 7 7 11 13 10 7 6 6 7 8 8 8 9 9 9 9 7 7
0 0 0 0 0 1 1 1 1 2 2 3 7 11 12 12 16 17 15 13 14 18 22 23 25 25 21 17 14 11 9 8 9 12 13 10 8 8 9 8 8 7 8 9 9 10 10 9 9
0 0 0 0 0 0 0 1 1 3 3 3 5 8 9 11 16 20 18 16 16 17 22 27 29 28 25 20 17 14 10 8 9 11 12 12 10 9 10 12 13 11 10 9 9 11 11 11 10
0 0 0 0 0 0 0 0 1 2 3 3 4 7 8 8 14 20 21 18 16 17 22 30 34 33 30 25 20 15 11 9 9 10 11 14 14 12 12 15 18 18 14 12 13 14 14 13 11
0 0 0 0 0 0 0 0 0 1 2 3 5 8 8 7 12 20 24 23 20 19 23 32 39 38 34 29 23 18 14 10 10 9 11 14 16 15 15 17 21 21 17 18 21 20 17 15 13
0 0 0 0 0 0 0 0 0 1 2 4 7 9 8 7 12 21 27 28 25 23 27 36 41 40 37 33 28 26 21 15 12 12 12 13 15 18 19 20 22 21 17 20 25 24 21 18 17
0 0 0 0 0 0 0 0 0 0 1 4 8 9 7 6 12 21 26 28 28 27 31 38 43 42 40 38 35 32 27 20 17 17 14 13 14 17 20 23 24 20 16 17 21 24 23 23 22
0 0 0 0 0 0 0 1 1 0 1 3 6 8 6 5 10 17 22 24 25 28 31 36 42 45 43 41 37 31 26 23 21 20 18 17 16 16 19 23 23 20 16 15 17 20 23 24 24
0 0 0 0 0 0 0 1 2 1 1 2 5 7 6 3 5 11 16 19 22 26 29 33 40 45 45 40 33 28 25 25 24 23 22 21 19 18 20 22 22 18 16 15 16 18 19 21 22
0 0 0 0 0 0 0 1 2 3 2 2 5 7 6 3 3 7 12 15 20 24 28 33 39 43 43 39 33 29 27 28 28 27 26 24 22 22 23 22 20 16 15 16 15 15 16 16 17
0 0 0 0 0 0 0 1 3 4 3 2 5 7 6 3 2 6 10 13 19 24 28 34 39 42 43 40 37 33 30 30 31 30 28 24 24 26 25 22 19 16 16 15 14 13 13 14 15